Observation data for Clyde on 12/09/2018      Previous  Date  Next       Current Mesonet Observations  Soil Data  Daily Summary Page  Observations in Plain Language
KCL2 090600Z 31006KT M03/M03 A303 RMK A01 T10291034  RH  096%=      5-min Rain = 0
KCL2 090601Z 31006KT M03/M03 A303 RMK A01 T10291034  RH  096%=      5-min Rain = 0
KCL2 090602Z 31005KT M03/M03 A303 RMK A01 T10291034  RH  096%=      5-min Rain = 0
KCL2 090603Z 31006KT M03/M03 A303 RMK A01 T10291034  RH  096%=      5-min Rain = 0
KCL2 090604Z 31006KT M03/M03 A303 RMK A01 T10281034  RH  096%=      5-min Rain = 0
KCL2 090605Z 31006KT M03/M03 A303 RMK A01 T10281034  RH  096%=      5-min Rain = 0
KCL2 090606Z 31006KT M03/M03 A303 RMK A01 T10281034  RH  096%=      5-min Rain = 0
KCL2 090607Z 31006KT M03/M03 A303 RMK A01 T10281034  RH  096%=      5-min Rain = 0
KCL2 090608Z 31006KT M03/M03 A303 RMK A01 T10281034  RH  096%=      5-min Rain = 0
KCL2 090609Z 31006KT M03/M03 A303 RMK A01 T10281034  RH  096%=      5-min Rain = 0
KCL2 090610Z 31007KT M03/M03 A303 RMK A01 T10281034  RH  096%=      5-min Rain = 0
KCL2 090611Z 31007KT M03/M03 A303 RMK A01 T10281034  RH  096%=      5-min Rain = 0
KCL2 090612Z 31007KT M03/M03 A303 RMK A01 T10281034  RH  096%=      5-min Rain = 0
KCL2 090613Z 31007KT M03/M03 A3029 RMK A01 T10281033  RH  096%=      5-min Rain = 0
KCL2 090614Z 31007KT M03/M03 A3029 RMK A01 T10271033  RH  096%=      5-min Rain = 0
KCL2 090615Z 31007KT M03/M03 A3029 RMK A01 T10271033  RH  096%=      5-min Rain = 0
KCL2 090616Z 31007KT M03/M03 A3029 RMK A01 T10271033  RH  096%=      5-min Rain = 0
KCL2 090617Z 31007KT M03/M03 A3029 RMK A01 T10271033  RH  096%=      5-min Rain = 0
KCL2 090618Z 31006KT M03/M03 A3029 RMK A01 T10281033  RH  096%=      5-min Rain = 0
KCL2 090619Z 31006KT M03/M03 A3029 RMK A01 T10271033  RH  096%=      5-min Rain = 0
KCL2 090620Z 31005KT M03/M03 A303 RMK A01 T10271033  RH  096%=      5-min Rain = 0
KCL2 090621Z 31006KT M03/M03 A303 RMK A01 T10271033  RH  096%=      5-min Rain = 0
KCL2 090622Z 31005KT M03/M03 A303 RMK A01 T10281033  RH  096%=      5-min Rain = 0
KCL2 090623Z 31005KT M03/M03 A303 RMK A01 T10271033  RH  096%=      5-min Rain = 0
KCL2 090624Z 31005KT M03/M03 A303 RMK A01 T10281034  RH  096%=      5-min Rain = 0
KCL2 090625Z 30005KT M03/M03 A303 RMK A01 T10281034  RH  096%=      5-min Rain = 0
KCL2 090626Z 30005KT M03/M03 A303 RMK A01 T10281034  RH  096%=      5-min Rain = 0
KCL2 090627Z 30004KT M03/M03 A303 RMK A01 T10281034  RH  096%=      5-min Rain = 0
KCL2 090628Z 30005KT M03/M03 A303 RMK A01 T10281034  RH  096%=      5-min Rain = 0
KCL2 090629Z 31005KT M03/M03 A303 RMK A01 T10291034  RH  096%=      5-min Rain = 0
KCL2 090630Z 31005KT M03/M03 A303 RMK A01 T10291034  RH  096%=      5-min Rain = 0
KCL2 090631Z 31005KT M03/M04 A303 RMK A01 T10291035  RH  096%=      5-min Rain = 0
KCL2 090632Z 31005KT M03/M04 A303 RMK A01 T10291035  RH  096%=      5-min Rain = 0
KCL2 090633Z 31005KT M03/M04 A303 RMK A01 T10301035  RH  096%=      5-min Rain = 0
KCL2 090634Z 31004KT M03/M04 A303 RMK A01 T10301036  RH  096%=      5-min Rain = 0
KCL2 090635Z 30005KT M03/M04 A303 RMK A01 T10301035  RH  096%=      5-min Rain = 0
KCL2 090636Z 30004KT M03/M04 A303 RMK A01 T10301036  RH  096%=      5-min Rain = 0
KCL2 090637Z 30004KT M03/M04 A303 RMK A01 T10301035  RH  096%=      5-min Rain = 0
KCL2 090638Z 30004KT M03/M04 A303 RMK A01 T10311036  RH  096%=      5-min Rain = 0
KCL2 090639Z 29004KT M03/M04 A303 RMK A01 T10301036  RH  096%=      5-min Rain = 0
KCL2 090640Z 30004KT M03/M04 A303 RMK A01 T10311036  RH  096%=      5-min Rain = 0
KCL2 090641Z 29004KT M03/M04 A303 RMK A01 T10311036  RH  096%=      5-min Rain = 0
KCL2 090642Z 29004KT M03/M04 A303 RMK A01 T10311036  RH  096%=      5-min Rain = 0
KCL2 090643Z 29004KT M03/M04 A303 RMK A01 T10321037  RH  097%=      5-min Rain = 0
KCL2 090644Z 29004KT M03/M04 A303 RMK A01 T10321037  RH  097%=      5-min Rain = 0
KCL2 090645Z 29004KT M03/M04 A303 RMK A01 T10321037  RH  097%=      5-min Rain = 0
KCL2 090646Z 29005KT M03/M04 A303 RMK A01 T10321037  RH  097%=      5-min Rain = 0
KCL2 090647Z 29005KT M03/M04 A303 RMK A01 T10321036  RH  097%=      5-min Rain = 0
KCL2 090648Z 29005KT M03/M04 A303 RMK A01 T10321037  RH  097%=      5-min Rain = 0
KCL2 090649Z 29005KT M03/M04 A303 RMK A01 T10321037  RH  097%=      5-min Rain = 0
KCL2 090650Z 30005KT M03/M04 A303 RMK A01 T10321037  RH  097%=      5-min Rain = 0
KCL2 090651Z 30005KT M03/M04 A303 RMK A01 T10321037  RH  097%=      5-min Rain = 0
KCL2 090652Z 30005KT M03/M04 A303 RMK A01 T10331037  RH  097%=      5-min Rain = 0
KCL2 090653Z 30005KT M03/M04 A303 RMK A01 T10331037  RH  097%=      5-min Rain = 0
KCL2 090654Z 30005KT M03/M04 A303 RMK A01 T10321036  RH  097%=      5-min Rain = 0
KCL2 090655Z 29005KT M03/M04 A303 RMK A01 T10331037  RH  097%=      5-min Rain = 0
KCL2 090656Z 30005KT M03/M04 A303 RMK A01 T10331037  RH  097%=      5-min Rain = 0
KCL2 090657Z 30005KT M03/M04 A303 RMK A01 T10331037  RH  097%=      5-min Rain = 0
KCL2 090658Z 29005KT M03/M04 A303 RMK A01 T10321037  RH  097%=      5-min Rain = 0
KCL2 090659Z 30005KT M03/M04 A303 RMK A01 T10321036  RH  097%=      5-min Rain = 0
KCL2 090700Z 29005KT M03/M04 A303 RMK A01 T10331038  RH  097%=      5-min Rain = 0
KCL2 090701Z 30004KT M03/M04 A303 RMK A01 T10331037  RH  097%=      5-min Rain = 0
KCL2 090702Z 29004KT M03/M04 A303 RMK A01 T10341038  RH  097%=      5-min Rain = 0
KCL2 090703Z 29004KT M03/M04 A303 RMK A01 T10341038  RH  097%=      5-min Rain = 0
KCL2 090704Z 29004KT M03/M04 A303 RMK A01 T10341038  RH  097%=      5-min Rain = 0
KCL2 090705Z 29004KT M03/M04 A303 RMK A01 T10341038  RH  097%=      5-min Rain = 0
KCL2 090706Z 29004KT M03/M04 A303 RMK A01 T10341038  RH  097%=      5-min Rain = 0
KCL2 090707Z 29004KT M03/M04 A303 RMK A01 T10341037  RH  098%=      5-min Rain = 0
KCL2 090708Z 29004KT M03/M04 A303 RMK A01 T10341037  RH  098%=      5-min Rain = 0
KCL2 090709Z 29004KT M03/M04 A303 RMK A01 T10331037  RH  098%=      5-min Rain = 0
KCL2 090710Z 29004KT M03/M04 A303 RMK A01 T10331037  RH  098%=      5-min Rain = 0
KCL2 090711Z 29004KT M03/M04 A303 RMK A01 T10331037  RH  098%=      5-min Rain = 0
KCL2 090712Z 29004KT M03/M04 A303 RMK A01 T10341037  RH  098%=      5-min Rain = 0
KCL2 090713Z 30004KT M03/M04 A303 RMK A01 T10341037  RH  098%=      5-min Rain = 0
KCL2 090714Z 30004KT M03/M04 A303 RMK A01 T10331037  RH  098%=      5-min Rain = 0
KCL2 090715Z 30004KT M03/M04 A303 RMK A01 T10331037  RH  098%=      5-min Rain = 0
KCL2 090716Z 30004KT M03/M04 A303 RMK A01 T10331037  RH  098%=      5-min Rain = 0
KCL2 090717Z 30004KT M03/M04 A303 RMK A01 T10331036  RH  098%=      5-min Rain = 0
KCL2 090718Z 31003KT M03/M04 A303 RMK A01 T10331037  RH  098%=      5-min Rain = 0
KCL2 090719Z 31004KT M03/M04 A303 RMK A01 T10331037  RH  098%=      5-min Rain = 0
KCL2 090720Z 31004KT M03/M04 A303 RMK A01 T10341037  RH  098%=      5-min Rain = 0
KCL2 090721Z 32004KT M03/M04 A303 RMK A01 T10341037  RH  098%=      5-min Rain = 0
KCL2 090722Z 32004KT M03/M04 A303 RMK A01 T10341037  RH  098%=      5-min Rain = 0
KCL2 090723Z 32004KT M03/M04 A303 RMK A01 T10331037  RH  098%=      5-min Rain = 0
KCL2 090724Z 32004KT M03/M04 A303 RMK A01 T10331037  RH  098%=      5-min Rain = 0
KCL2 090725Z 32004KT M03/M04 A303 RMK A01 T10331036  RH  098%=      5-min Rain = 0
KCL2 090726Z 32004KT M03/M04 A303 RMK A01 T10331036  RH  098%=      5-min Rain = 0
KCL2 090727Z 32005KT M03/M04 A303 RMK A01 T10331036  RH  098%=      5-min Rain = 0
KCL2 090728Z 32005KT M03/M04 A303 RMK A01 T10331036  RH  098%=      5-min Rain = 0
KCL2 090729Z 32005KT M03/M04 A303 RMK A01 T10331037  RH  097%=      5-min Rain = 0
KCL2 090730Z 32005KT M03/M04 A3029 RMK A01 T10331036  RH  097%=      5-min Rain = 0
KCL2 090731Z 32005KT M03/M04 A3029 RMK A01 T10331037  RH  097%=      5-min Rain = 0
KCL2 090732Z 32005KT M03/M04 A3029 RMK A01 T10331037  RH  097%=      5-min Rain = 0
KCL2 090733Z 32005KT M03/M04 A3029 RMK A01 T10341038  RH  097%=      5-min Rain = 0
KCL2 090734Z 32005KT M03/M04 A3029 RMK A01 T10341038  RH  097%=      5-min Rain = 0
KCL2 090735Z 32005KT M03/M04 A3029 RMK A01 T10341039  RH  097%=      5-min Rain = 0
KCL2 090736Z 31005KT M04/M04 A303 RMK A01 T10351039  RH  097%=      5-min Rain = 0
KCL2 090737Z 31005KT M04/M04 A303 RMK A01 T10351039  RH  097%=      5-min Rain = 0
KCL2 090738Z 31005KT M04/M04 A303 RMK A01 T10351039  RH  097%=      5-min Rain = 0
KCL2 090739Z 31005KT M04/M04 A303 RMK A01 T10351039  RH  097%=      5-min Rain = 0
KCL2 090740Z 30005KT M03/M04 A303 RMK A01 T10341038  RH  097%=      5-min Rain = 0
KCL2 090741Z 30005KT M03/M04 A303 RMK A01 T10341038  RH  097%=      5-min Rain = 0
KCL2 090742Z 30005KT M03/M04 A303 RMK A01 T10341038  RH  097%=      5-min Rain = 0
KCL2 090743Z 30005KT M03/M04 A303 RMK A01 T10341038  RH  097%=      5-min Rain = 0
KCL2 090744Z 30006KT M03/M04 A3029 RMK A01 T10341038  RH  097%=      5-min Rain = 0
KCL2 090745Z 30006KT M03/M04 A3029 RMK A01 T10341038  RH  097%=      5-min Rain = 0
KCL2 090746Z 30006KT M03/M04 A3029 RMK A01 T10341038  RH  097%=      5-min Rain = 0
KCL2 090747Z 30006KT M03/M04 A3029 RMK A01 T10341038  RH  098%=      5-min Rain = 0
KCL2 090748Z 31005KT M03/M04 A3029 RMK A01 T10341038  RH  098%=      5-min Rain = 0
KCL2 090749Z 31006KT M03/M04 A3029 RMK A01 T10341038  RH  097%=      5-min Rain = 0
KCL2 090750Z 31006KT M03/M04 A303 RMK A01 T10341038  RH  097%=      5-min Rain = 0
KCL2 090751Z 31006KT M03/M04 A303 RMK A01 T10341038  RH  098%=      5-min Rain = 0
KCL2 090752Z 31006KT M03/M04 A303 RMK A01 T10341037  RH  098%=      5-min Rain = 0
KCL2 090753Z 31006KT M03/M04 A303 RMK A01 T10341037  RH  098%=      5-min Rain = 0
KCL2 090754Z 31005KT M03/M04 A3029 RMK A01 T10331036  RH  098%=      5-min Rain = 0
KCL2 090755Z 31006KT M03/M04 A3029 RMK A01 T10331036  RH  098%=      5-min Rain = 0
KCL2 090756Z 31005KT M03/M04 A3029 RMK A01 T10331036  RH  098%=      5-min Rain = 0
KCL2 090757Z 32005KT M03/M04 A3029 RMK A01 T10321035  RH  098%=      5-min Rain = 0
KCL2 090758Z 32005KT M03/M04 A3029 RMK A01 T10321035  RH  098%=      5-min Rain = 0
KCL2 090759Z 32005KT M03/M04 A3029 RMK A01 T10321035  RH  098%=      5-min Rain = 0
KCL2 090800Z 32005KT M03/M04 A3029 RMK A01 T10321035  RH  098%=      5-min Rain = 0
KCL2 090801Z 32005KT M03/M04 A3029 RMK A01 T10321035  RH  098%=      5-min Rain = 0
KCL2 090802Z 32005KT M03/M04 A3029 RMK A01 T10321035  RH  098%=      5-min Rain = 0
KCL2 090803Z 32005KT M03/M04 A3029 RMK A01 T10321035  RH  098%=      5-min Rain = 0
KCL2 090804Z 32005KT M03/M04 A3029 RMK A01 T10321035  RH  098%=      5-min Rain = 0
KCL2 090805Z 32005KT M03/M04 A3029 RMK A01 T10321035  RH  098%=      5-min Rain = 0
KCL2 090806Z 32005KT M03/M04 A3029 RMK A01 T10321035  RH  098%=      5-min Rain = 0
KCL2 090807Z 33005KT M03/M04 A3029 RMK A01 T10321035  RH  098%=      5-min Rain = 0
KCL2 090808Z 33005KT M03/M04 A3029 RMK A01 T10321035  RH  098%=      5-min Rain = 0
KCL2 090809Z 33005KT M03/M04 A3029 RMK A01 T10331036  RH  098%=      5-min Rain = 0
KCL2 090810Z 33005KT M03/M04 A3029 RMK A01 T10331036  RH  098%=      5-min Rain = 0
KCL2 090811Z 33005KT M03/M04 A3029 RMK A01 T10331036  RH  098%=      5-min Rain = 0
KCL2 090812Z 33004KT M03/M04 A3029 RMK A01 T10331036  RH  098%=      5-min Rain = 0
KCL2 090813Z 33005KT M03/M04 A3029 RMK A01 T10331037  RH  098%=      5-min Rain = 0
KCL2 090814Z 33004KT M03/M04 A3029 RMK A01 T10331037  RH  098%=      5-min Rain = 0
KCL2 090815Z 33004KT M03/M04 A3029 RMK A01 T10341037  RH  098%=      5-min Rain = 0
KCL2 090816Z 33005KT M03/M04 A3029 RMK A01 T10341037  RH  098%=      5-min Rain = 0
KCL2 090817Z 33005KT M03/M04 A3029 RMK A01 T10341038  RH  098%=      5-min Rain = 0
KCL2 090818Z 33005KT M03/M04 A3029 RMK A01 T10341038  RH  098%=      5-min Rain = 0
KCL2 090819Z 33005KT M04/M04 A3029 RMK A01 T10351038  RH  098%=      5-min Rain = 0
KCL2 090820Z 33005KT M03/M04 A3029 RMK A01 T10341038  RH  098%=      5-min Rain = 0
KCL2 090821Z 33005KT M04/M04 A3029 RMK A01 T10351038  RH  098%=      5-min Rain = 0
KCL2 090822Z 33005KT M04/M04 A3029 RMK A01 T10351038  RH  098%=      5-min Rain = 0
KCL2 090823Z 33005KT M04/M04 A3029 RMK A01 T10351038  RH  098%=      5-min Rain = 0
KCL2 090824Z 34005KT M04/M04 A3029 RMK A01 T10351038  RH  098%=      5-min Rain = 0
KCL2 090825Z 33005KT M04/M04 A3029 RMK A01 T10361039  RH  098%=      5-min Rain = 0
KCL2 090826Z 33005KT M04/M04 A3029 RMK A01 T10351038  RH  098%=      5-min Rain = 0
KCL2 090827Z 33005KT M04/M04 A3029 RMK A01 T10361038  RH  098%=      5-min Rain = 0
KCL2 090828Z 33005KT M04/M04 A3029 RMK A01 T10361039  RH  098%=      5-min Rain = 0
KCL2 090829Z 33005KT M04/M04 A3029 RMK A01 T10361039  RH  098%=      5-min Rain = 0
KCL2 090830Z 33005KT M04/M04 A3029 RMK A01 T10361039  RH  098%=      5-min Rain = 0
KCL2 090831Z 33005KT M04/M04 A3029 RMK A01 T10361039  RH  098%=      5-min Rain = 0
KCL2 090832Z 33005KT M04/M04 A3029 RMK A01 T10371039  RH  098%=      5-min Rain = 0
KCL2 090833Z 33005KT M04/M04 A3029 RMK A01 T10371039  RH  098%=      5-min Rain = 0
KCL2 090834Z 32005KT M04/M04 A3029 RMK A01 T10371040  RH  098%=      5-min Rain = 0
KCL2 090835Z 32005KT M04/M04 A3029 RMK A01 T10371040  RH  098%=      5-min Rain = 0
KCL2 090836Z 32005KT M04/M04 A3029 RMK A01 T10381041  RH  098%=      5-min Rain = 0
KCL2 090837Z 32005KT M04/M04 A3029 RMK A01 T10381041  RH  098%=      5-min Rain = 0
KCL2 090838Z 32005KT M04/M04 A3029 RMK A01 T10381041  RH  098%=      5-min Rain = 0
KCL2 090839Z 32005KT M04/M04 A3029 RMK A01 T10381041  RH  098%=      5-min Rain = 0
KCL2 090840Z 32005KT M04/M04 A3029 RMK A01 T10391041  RH  098%=      5-min Rain = 0
KCL2 090841Z 33005KT M04/M04 A3029 RMK A01 T10391042  RH  098%=      5-min Rain = 0
KCL2 090842Z 33006KT M04/M04 A3029 RMK A01 T10391041  RH  098%=      5-min Rain = 0
KCL2 090843Z 33005KT M04/M04 A3029 RMK A01 T10381041  RH  098%=      5-min Rain = 0
KCL2 090844Z 33006KT M04/M04 A3029 RMK A01 T10381040  RH  098%=      5-min Rain = 0
KCL2 090845Z 33006KT M04/M04 A3029 RMK A01 T10371039  RH  098%=      5-min Rain = 0
KCL2 090846Z 33005KT M04/M04 A3029 RMK A01 T10371040  RH  099%=      5-min Rain = 0
KCL2 090847Z 33006KT M04/M04 A3029 RMK A01 T10381040  RH  098%=      5-min Rain = 0
KCL2 090848Z 33005KT M04/M04 A3029 RMK A01 T10381040  RH  099%=      5-min Rain = 0
KCL2 090849Z 33005KT M04/M04 A3029 RMK A01 T10381040  RH  098%=      5-min Rain = 0
KCL2 090850Z 33005KT M04/M04 A3029 RMK A01 T10381040  RH  098%=      5-min Rain = 0
KCL2 090851Z 33005KT M04/M04 A3029 RMK A01 T10371040  RH  098%=      5-min Rain = 0
KCL2 090852Z 33005KT M04/M04 A3029 RMK A01 T10371040  RH  098%=      5-min Rain = 0
KCL2 090853Z 33005KT M04/M04 A3029 RMK A01 T10371039  RH  099%=      5-min Rain = 0
KCL2 090854Z 33005KT M04/M04 A3029 RMK A01 T10371039  RH  099%=      5-min Rain = 0
KCL2 090855Z 33005KT M04/M04 A3029 RMK A01 T10371039  RH  099%=      5-min Rain = 0
KCL2 090856Z 33005KT M04/M04 A3029 RMK A01 T10371039  RH  099%=      5-min Rain = 0
KCL2 090857Z 33005KT M04/M04 A3029 RMK A01 T10361038  RH  099%=      5-min Rain = 0
KCL2 090858Z 33005KT M04/M04 A3029 RMK A01 T10361038  RH  099%=      5-min Rain = 0
KCL2 090859Z 33005KT M04/M04 A3029 RMK A01 T10361038  RH  099%=      5-min Rain = 0
KCL2 090900Z 34005KT M04/M04 A3029 RMK A01 T10361038  RH  099%=      5-min Rain = 0
KCL2 090901Z 34005KT M04/M04 A3029 RMK A01 T10361038  RH  099%=      5-min Rain = 0
KCL2 090902Z 34005KT M04/M04 A3029 RMK A01 T10361038  RH  099%=      5-min Rain = 0
KCL2 090903Z 34005KT M04/M04 A3029 RMK A01 T10361038  RH  099%=      5-min Rain = 0
KCL2 090904Z 34005KT M04/M04 A3029 RMK A01 T10361038  RH  099%=      5-min Rain = 0
KCL2 090905Z 34005KT M04/M04 A3029 RMK A01 T10361039  RH  099%=      5-min Rain = 0
KCL2 090906Z 34005KT M04/M04 A3029 RMK A01 T10371039  RH  098%=      5-min Rain = 0
KCL2 090907Z 34005KT M04/M04 A3029 RMK A01 T10371039  RH  099%=      5-min Rain = 0
KCL2 090908Z 34005KT M04/M04 A3029 RMK A01 T10371039  RH  099%=      5-min Rain = 0
KCL2 090909Z 33005KT M04/M04 A3029 RMK A01 T10371039  RH  099%=      5-min Rain = 0
KCL2 090910Z 33005KT M04/M04 A3029 RMK A01 T10371039  RH  099%=      5-min Rain = 0
KCL2 090911Z 33005KT M04/M04 A3029 RMK A01 T10371039  RH  099%=      5-min Rain = 0
KCL2 090912Z 33005KT M04/M04 A3029 RMK A01 T10371039  RH  099%=      5-min Rain = 0
KCL2 090913Z 33006KT M04/M04 A3029 RMK A01 T10371039  RH  099%=      5-min Rain = 0
KCL2 090914Z 33006KT M04/M04 A3029 RMK A01 T10371039  RH  099%=      5-min Rain = 0
KCL2 090915Z 33006KT M04/M04 A3029 RMK A01 T10371039  RH  099%=      5-min Rain = 0
KCL2 090916Z 33006KT M04/M04 A3029 RMK A01 T10371039  RH  099%=      5-min Rain = 0
KCL2 090917Z 33006KT M04/M04 A3029 RMK A01 T10371039  RH  099%=      5-min Rain = 0
KCL2 090918Z 33006KT M04/M04 A3029 RMK A01 T10371039  RH  099%=      5-min Rain = 0
KCL2 090919Z 33006KT M04/M04 A3029 RMK A01 T10371039  RH  099%=      5-min Rain = 0
KCL2 090920Z 33005KT M04/M04 A3029 RMK A01 T10361038  RH  099%=      5-min Rain = 0
KCL2 090921Z 33005KT M04/M04 A3029 RMK A01 T10361038  RH  098%=      5-min Rain = 0
KCL2 090922Z 33005KT M04/M04 A3029 RMK A01 T10361038  RH  098%=      5-min Rain = 0
KCL2 090923Z 33005KT M04/M04 A3029 RMK A01 T10351038  RH  098%=      5-min Rain = 0
KCL2 090924Z 33005KT M04/M04 A3029 RMK A01 T10361038  RH  098%=      5-min Rain = 0
KCL2 090925Z 33005KT M04/M04 A3029 RMK A01 T10361038  RH  098%=      5-min Rain = 0
KCL2 090926Z 33005KT M04/M04 A3029 RMK A01 T10361038  RH  098%=      5-min Rain = 0
KCL2 090927Z 33005KT M04/M04 A3029 RMK A01 T10361038  RH  098%=      5-min Rain = 0
KCL2 090928Z 33005KT M04/M04 A3029 RMK A01 T10361039  RH  098%=      5-min Rain = 0
KCL2 090929Z 33005KT M04/M04 A3029 RMK A01 T10351038  RH  098%=      5-min Rain = 0
KCL2 090930Z 33005KT M04/M04 A3029 RMK A01 T10361039  RH  098%=      5-min Rain = 0
KCL2 090931Z 33005KT M04/M04 A3029 RMK A01 T10361039  RH  098%=      5-min Rain = 0
KCL2 090932Z 33005KT M04/M04 A3029 RMK A01 T10361039  RH  098%=      5-min Rain = 0
KCL2 090933Z 33005KT M04/M04 A3029 RMK A01 T10351038  RH  098%=      5-min Rain = 0
KCL2 090934Z 33005KT M04/M04 A3029 RMK A01 T10351038  RH  098%=      5-min Rain = 0
KCL2 090935Z 33005KT M04/M04 A3029 RMK A01 T10351038  RH  098%=      5-min Rain = 0
KCL2 090936Z 33005KT M04/M04 A3029 RMK A01 T10351038  RH  098%=      5-min Rain = 0
KCL2 090937Z 33005KT M04/M04 A3029 RMK A01 T10351038  RH  098%=      5-min Rain = 0
KCL2 090938Z 33005KT M04/M04 A3029 RMK A01 T10351038  RH  098%=      5-min Rain = 0
KCL2 090939Z 33005KT M04/M04 A3029 RMK A01 T10351038  RH  098%=      5-min Rain = 0
KCL2 090940Z 33005KT M04/M04 A3029 RMK A01 T10351038  RH  097%=      5-min Rain = 0
KCL2 090941Z 33005KT M04/M04 A3029 RMK A01 T10351038  RH  097%=      5-min Rain = 0
KCL2 090942Z 33005KT M04/M04 A3029 RMK A01 T10351039  RH  097%=      5-min Rain = 0
KCL2 090943Z 33005KT M04/M04 A3029 RMK A01 T10351039  RH  097%=      5-min Rain = 0
KCL2 090944Z 33005KT M04/M04 A3029 RMK A01 T10351039  RH  097%=      5-min Rain = 0
KCL2 090945Z 33006KT M04/M04 A3029 RMK A01 T10351039  RH  097%=      5-min Rain = 0
KCL2 090946Z 33006KT M04/M04 A3029 RMK A01 T10351039  RH  097%=      5-min Rain = 0
KCL2 090947Z 33006KT M04/M04 A3029 RMK A01 T10351039  RH  097%=      5-min Rain = 0
KCL2 090948Z 34006KT M04/M04 A3029 RMK A01 T10351039  RH  097%=      5-min Rain = 0
KCL2 090949Z 34006KT M04/M04 A3029 RMK A01 T10361040  RH  097%=      5-min Rain = 0
KCL2 090950Z 34006KT M04/M04 A3029 RMK A01 T10351039  RH  097%=      5-min Rain = 0
KCL2 090951Z 34006KT M04/M04 A3029 RMK A01 T10361040  RH  097%=      5-min Rain = 0
KCL2 090952Z 34006KT M04/M04 A3029 RMK A01 T10361040  RH  097%=      5-min Rain = 0
KCL2 090953Z 34006KT M04/M04 A3029 RMK A01 T10361040  RH  097%=      5-min Rain = 0
KCL2 090954Z 34006KT M04/M04 A3029 RMK A01 T10361040  RH  097%=      5-min Rain = 0
KCL2 090955Z 34006KT M04/M04 A3029 RMK A01 T10361040  RH  097%=      5-min Rain = 0
KCL2 090956Z 33006KT M04/M04 A3029 RMK A01 T10361040  RH  097%=      5-min Rain = 0
KCL2 090957Z 33006KT M04/M04 A3029 RMK A01 T10361040  RH  097%=      5-min Rain = 0
KCL2 090958Z 33006KT M04/M04 A3029 RMK A01 T10361040  RH  097%=      5-min Rain = 0
KCL2 090959Z 33006KT M04/M04 A3029 RMK A01 T10361040  RH  097%=      5-min Rain = 0
KCL2 091000Z 34006KT M04/M04 A3029 RMK A01 T10351039  RH  097%=      5-min Rain = 0
KCL2 091001Z 34006KT M04/M04 A3029 RMK A01 T10351039  RH  097%=      5-min Rain = 0
KCL2 091002Z 34006KT M04/M04 A3029 RMK A01 T10351039  RH  097%=      5-min Rain = 0
KCL2 091003Z 34006KT M04/M04 A3029 RMK A01 T10351039  RH  097%=      5-min Rain = 0
KCL2 091004Z 34006KT M03/M04 A3029 RMK A01 T10341039  RH  097%=      5-min Rain = 0
KCL2 091005Z 34006KT M03/M04 A3029 RMK A01 T10341039  RH  097%=      5-min Rain = 0
KCL2 091006Z 34006KT M03/M04 A3029 RMK A01 T10341039  RH  096%=      5-min Rain = 0
KCL2 091007Z 34006KT M03/M04 A3029 RMK A01 T10341039  RH  096%=      5-min Rain = 0
KCL2 091008Z 34006KT M03/M04 A3029 RMK A01 T10341039  RH  096%=      5-min Rain = 0
KCL2 091009Z 34006KT M03/M04 A3029 RMK A01 T10341039  RH  096%=      5-min Rain = 0
KCL2 091010Z 34006KT M03/M04 A3029 RMK A01 T10341040  RH  096%=      5-min Rain = 0
KCL2 091011Z 34006KT M03/M04 A3029 RMK A01 T10341040  RH  096%=      5-min Rain = 0
KCL2 091012Z 34007KT M03/M04 A3029 RMK A01 T10341040  RH  096%=      5-min Rain = 0
KCL2 091013Z 34006KT M03/M04 A3029 RMK A01 T10341040  RH  096%=      5-min Rain = 0
KCL2 091014Z 34007KT M03/M04 A3029 RMK A01 T10341040  RH  095%=      5-min Rain = 0
KCL2 091015Z 34007KT M03/M04 A3029 RMK A01 T10341040  RH  095%=      5-min Rain = 0
KCL2 091016Z 34006KT M03/M04 A3029 RMK A01 T10341040  RH  095%=      5-min Rain = 0
KCL2 091017Z 34006KT M03/M04 A3029 RMK A01 T10341040  RH  095%=      5-min Rain = 0
KCL2 091018Z 34007KT M03/M04 A3029 RMK A01 T10341041  RH  095%=      5-min Rain = 0
KCL2 091019Z 34007KT M03/M04 A3029 RMK A01 T10341041  RH  095%=      5-min Rain = 0
KCL2 091020Z 34006KT M03/M04 A3029 RMK A01 T10341041  RH  095%=      5-min Rain = 0
KCL2 091021Z 34006KT M03/M04 A3029 RMK A01 T10341041  RH  095%=      5-min Rain = 0
KCL2 091022Z 34007KT M03/M04 A3029 RMK A01 T10341041  RH  095%=      5-min Rain = 0
KCL2 091023Z 34007KT M03/M04 A3029 RMK A01 T10341041  RH  095%=      5-min Rain = 0
KCL2 091024Z 33007KT M03/M04 A3029 RMK A01 T10341041  RH  095%=      5-min Rain = 0
KCL2 091025Z 34007KT M03/M04 A3029 RMK A01 T10341041  RH  095%=      5-min Rain = 0
KCL2 091026Z 34007KT M03/M04 A3029 RMK A01 T10341041  RH  095%=      5-min Rain = 0
KCL2 091027Z 34007KT M03/M04 A3029 RMK A01 T10331040  RH  095%=      5-min Rain = 0
KCL2 091028Z 34007KT M03/M04 A3029 RMK A01 T10331041  RH  095%=      5-min Rain = 0
KCL2 091029Z 34006KT M03/M04 A3029 RMK A01 T10331041  RH  095%=      5-min Rain = 0
KCL2 091030Z 34007KT M03/M04 A3029 RMK A01 T10331041  RH  094%=      5-min Rain = 0
KCL2 091031Z 34007KT M03/M04 A3029 RMK A01 T10331041  RH  094%=      5-min Rain = 0
KCL2 091032Z 34007KT M03/M04 A3029 RMK A01 T10331041  RH  094%=      5-min Rain = 0
KCL2 091033Z 34006KT M03/M04 A3029 RMK A01 T10331041  RH  094%=      5-min Rain = 0
KCL2 091034Z 34006KT M03/M04 A3029 RMK A01 T10341041  RH  094%=      5-min Rain = 0
KCL2 091035Z 34007KT M03/M04 A3029 RMK A01 T10341042  RH  094%=      5-min Rain = 0
KCL2 091036Z 34007KT M03/M04 A3029 RMK A01 T10341043  RH  094%=      5-min Rain = 0
KCL2 091037Z 33006KT M03/M04 A3029 RMK A01 T10341042  RH  094%=      5-min Rain = 0
KCL2 091038Z 33007KT M03/M04 A3029 RMK A01 T10341042  RH  094%=      5-min Rain = 0
KCL2 091039Z 34006KT M03/M04 A3029 RMK A01 T10341042  RH  094%=      5-min Rain = 0
KCL2 091040Z 33006KT M04/M04 A3029 RMK A01 T10351043  RH  094%=      5-min Rain = 0
KCL2 091041Z 33006KT M04/M04 A3029 RMK A01 T10351043  RH  094%=      5-min Rain = 0
KCL2 091042Z 33006KT M04/M04 A3029 RMK A01 T10351043  RH  094%=      5-min Rain = 0
KCL2 091043Z 34006KT M04/M04 A3029 RMK A01 T10351043  RH  095%=      5-min Rain = 0
KCL2 091044Z 33006KT M04/M04 A3029 RMK A01 T10361043  RH  095%=      5-min Rain = 0
KCL2 091045Z 33006KT M04/M04 A3029 RMK A01 T10361043  RH  095%=      5-min Rain = 0
KCL2 091046Z 33006KT M04/M04 A3029 RMK A01 T10361043  RH  095%=      5-min Rain = 0
KCL2 091047Z 33006KT M04/M04 A3029 RMK A01 T10361043  RH  095%=      5-min Rain = 0
KCL2 091048Z 33006KT M04/M04 A3029 RMK A01 T10361044  RH  095%=      5-min Rain = 0
KCL2 091049Z 33005KT M04/M04 A3029 RMK A01 T10371044  RH  095%=      5-min Rain = 0
KCL2 091050Z 32006KT M04/M05 A3029 RMK A01 T10371045  RH  095%=      5-min Rain = 0
KCL2 091051Z 32006KT M04/M05 A3029 RMK A01 T10381046  RH  095%=      5-min Rain = 0
KCL2 091052Z 32005KT M04/M05 A3029 RMK A01 T10381046  RH  095%=      5-min Rain = 0
KCL2 091053Z 31005KT M04/M05 A3029 RMK A01 T10391046  RH  095%=      5-min Rain = 0
KCL2 091054Z 32006KT M04/M05 A3029 RMK A01 T10391046  RH  095%=      5-min Rain = 0
KCL2 091055Z 32005KT M04/M05 A3029 RMK A01 T10391046  RH  095%=      5-min Rain = 0
KCL2 091056Z 32005KT M04/M05 A3029 RMK A01 T10391046  RH  095%=      5-min Rain = 0
KCL2 091057Z 32005KT M04/M05 A3029 RMK A01 T10401046  RH  095%=      5-min Rain = 0
KCL2 091058Z 32005KT M04/M05 A3029 RMK A01 T10391046  RH  095%=      5-min Rain = 0
KCL2 091059Z 32005KT M04/M05 A3029 RMK A01 T10401046  RH  095%=      5-min Rain = 0
KCL2 091100Z 32006KT M04/M05 A3029 RMK A01 T10401047  RH  095%=      5-min Rain = 0
KCL2 091101Z 32006KT M04/M05 A3029 RMK A01 T10401047  RH  095%=      5-min Rain = 0
KCL2 091102Z 32006KT M04/M05 A3029 RMK A01 T10411048  RH  095%=      5-min Rain = 0
KCL2 091103Z 32006KT M04/M05 A3029 RMK A01 T10411048  RH  095%=      5-min Rain = 0
KCL2 091104Z 32006KT M04/M05 A3029 RMK A01 T10411047  RH  095%=      5-min Rain = 0
KCL2 091105Z 33006KT M04/M05 A3029 RMK A01 T10411047  RH  095%=      5-min Rain = 0
KCL2 091106Z 33006KT M04/M05 A3029 RMK A01 T10411047  RH  095%=      5-min Rain = 0
KCL2 091107Z 33007KT M04/M05 A3029 RMK A01 T10411047  RH  095%=      5-min Rain = 0
KCL2 091108Z 32006KT M04/M05 A3029 RMK A01 T10401047  RH  095%=      5-min Rain = 0
KCL2 091109Z 32007KT M04/M05 A303 RMK A01 T10401047  RH  095%=      5-min Rain = 0
KCL2 091110Z 33006KT M04/M05 A303 RMK A01 T10401047  RH  095%=      5-min Rain = 0
KCL2 091111Z 33006KT M04/M05 A303 RMK A01 T10401047  RH  095%=      5-min Rain = 0
KCL2 091112Z 33006KT M04/M05 A303 RMK A01 T10401047  RH  095%=      5-min Rain = 0
KCL2 091113Z 33006KT M04/M05 A303 RMK A01 T10401047  RH  095%=      5-min Rain = 0
KCL2 091114Z 32006KT M04/M05 A303 RMK A01 T10401046  RH  095%=      5-min Rain = 0
KCL2 091115Z 32006KT M04/M05 A303 RMK A01 T10401047  RH  095%=      5-min Rain = 0
KCL2 091116Z 32006KT M04/M05 A303 RMK A01 T10401047  RH  095%=      5-min Rain = 0
KCL2 091117Z 32006KT M04/M05 A303 RMK A01 T10401047  RH  095%=      5-min Rain = 0
KCL2 091118Z 32006KT M04/M05 A303 RMK A01 T10411047  RH  095%=      5-min Rain = 0
KCL2 091119Z 32006KT M04/M05 A303 RMK A01 T10411047  RH  095%=      5-min Rain = 0
KCL2 091120Z 31006KT M04/M05 A303 RMK A01 T10411047  RH  095%=      5-min Rain = 0
KCL2 091121Z 31005KT M04/M05 A303 RMK A01 T10411047  RH  095%=      5-min Rain = 0
KCL2 091122Z 31005KT M04/M05 A303 RMK A01 T10411047  RH  095%=      5-min Rain = 0
KCL2 091123Z 31005KT M04/M05 A303 RMK A01 T10411048  RH  095%=      5-min Rain = 0
KCL2 091124Z 31006KT M04/M05 A303 RMK A01 T10421048  RH  095%=      5-min Rain = 0
KCL2 091125Z 31005KT M04/M05 A303 RMK A01 T10411047  RH  096%=      5-min Rain = 0
KCL2 091126Z 31005KT M04/M05 A303 RMK A01 T10411047  RH  096%=      5-min Rain = 0
KCL2 091127Z 31006KT M04/M05 A303 RMK A01 T10421048  RH  096%=      5-min Rain = 0
KCL2 091128Z 32006KT M04/M05 A303 RMK A01 T10421048  RH  096%=      5-min Rain = 0
KCL2 091129Z 31006KT M04/M05 A3031 RMK A01 T10421048  RH  096%=      5-min Rain = 0
KCL2 091130Z 32006KT M04/M05 A3031 RMK A01 T10431048  RH  096%=      5-min Rain = 0
KCL2 091131Z 32006KT M04/M05 A3031 RMK A01 T10431048  RH  096%=      5-min Rain = 0
KCL2 091132Z 32006KT M04/M05 A3031 RMK A01 T10431048  RH  096%=      5-min Rain = 0
KCL2 091133Z 31006KT M04/M05 A3031 RMK A01 T10431048  RH  096%=      5-min Rain = 0
KCL2 091134Z 31006KT M04/M05 A3031 RMK A01 T10421047  RH  096%=      5-min Rain = 0
KCL2 091135Z 31006KT M04/M05 A3031 RMK A01 T10421047  RH  096%=      5-min Rain = 0
KCL2 091136Z 31006KT M04/M05 A3031 RMK A01 T10421047  RH  096%=      5-min Rain = 0
KCL2 091137Z 31006KT M04/M05 A3031 RMK A01 T10411046  RH  096%=      5-min Rain = 0
KCL2 091138Z 31006KT M04/M05 A3031 RMK A01 T10411046  RH  096%=      5-min Rain = 0
KCL2 091139Z 31006KT M04/M05 A3031 RMK A01 T10411046  RH  096%=      5-min Rain = 0
KCL2 091140Z 31006KT M04/M05 A3031 RMK A01 T10401046  RH  096%=      5-min Rain = 0
KCL2 091141Z 32006KT M04/M05 A3031 RMK A01 T10401046  RH  096%=      5-min Rain = 0
KCL2 091142Z 32006KT M04/M05 A3031 RMK A01 T10401047  RH  096%=      5-min Rain = 0
KCL2 091143Z 31006KT M04/M05 A3031 RMK A01 T10401046  RH  095%=      5-min Rain = 0
KCL2 091144Z 32006KT M04/M05 A3031 RMK A01 T10401047  RH  095%=      5-min Rain = 0
KCL2 091145Z 32006KT M04/M05 A3031 RMK A01 T10401047  RH  095%=      5-min Rain = 0
KCL2 091146Z 32006KT M04/M05 A3031 RMK A01 T10401047  RH  095%=      5-min Rain = 0
KCL2 091147Z 31006KT M04/M05 A3031 RMK A01 T10401047  RH  095%=      5-min Rain = 0
KCL2 091148Z 32006KT M04/M05 A3031 RMK A01 T10411047  RH  095%=      5-min Rain = 0
KCL2 091149Z 32006KT M04/M05 A3032 RMK A01 T10411047  RH  095%=      5-min Rain = 0
KCL2 091150Z 32007KT M04/M05 A3032 RMK A01 T10401047  RH  095%=      5-min Rain = 0
KCL2 091151Z 32006KT M04/M05 A3032 RMK A01 T10411047  RH  095%=      5-min Rain = 0
KCL2 091152Z 32006KT M04/M05 A3032 RMK A01 T10411047  RH  095%=      5-min Rain = 0
KCL2 091153Z 32006KT M04/M05 A3032 RMK A01 T10411047  RH  095%=      5-min Rain = 0
KCL2 091154Z 32006KT M04/M05 A3032 RMK A01 T10411047  RH  095%=      5-min Rain = 0
KCL2 091155Z 32007KT M04/M05 A3032 RMK A01 T10411048  RH  095%=      5-min Rain = 0
KCL2 091156Z 31006KT M04/M05 A3032 RMK A01 T10411048  RH  095%=      5-min Rain = 0
KCL2 091157Z 32006KT M04/M05 A3032 RMK A01 T10411047  RH  096%=      5-min Rain = 0
KCL2 091158Z 32005KT M04/M05 A3032 RMK A01 T10411047  RH  096%=      5-min Rain = 0
KCL2 091159Z 32006KT M04/M05 A3032 RMK A01 T10421048  RH  096%=      5-min Rain = 0
KCL2 091200Z 33006KT M04/M05 A3032 RMK A01 T10421048  RH  096%=      5-min Rain = 0
KCL2 091201Z 33006KT M04/M05 A3032 RMK A01 T10421048  RH  096%=      5-min Rain = 0
KCL2 091202Z 32006KT M04/M05 A3031 RMK A01 T10421048  RH  096%=      5-min Rain = 0
KCL2 091203Z 32006KT M04/M05 A3032 RMK A01 T10421048  RH  096%=      5-min Rain = 0
KCL2 091204Z 32006KT M04/M05 A3032 RMK A01 T10421048  RH  096%=      5-min Rain = 0
KCL2 091205Z 32006KT M04/M05 A3032 RMK A01 T10421049  RH  096%=      5-min Rain = 0
KCL2 091206Z 32006KT M04/M05 A3032 RMK A01 T10431049  RH  095%=      5-min Rain = 0
KCL2 091207Z 32006KT M04/M05 A3032 RMK A01 T10431049  RH  096%=      5-min Rain = 0
KCL2 091208Z 31006KT M04/M05 A3032 RMK A01 T10431049  RH  096%=      5-min Rain = 0
KCL2 091209Z 32006KT M04/M05 A3032 RMK A01 T10431049  RH  096%=      5-min Rain = 0
KCL2 091210Z 32006KT M04/M05 A3032 RMK A01 T10421048  RH  096%=      5-min Rain = 0
KCL2 091211Z 31006KT M04/M05 A3032 RMK A01 T10421048  RH  096%=      5-min Rain = 0
KCL2 091212Z 32007KT M04/M05 A3032 RMK A01 T10421048  RH  096%=      5-min Rain = 0
KCL2 091213Z 32006KT M04/M05 A3032 RMK A01 T10421048  RH  095%=      5-min Rain = 0
KCL2 091214Z 32007KT M04/M05 A3032 RMK A01 T10421049  RH  095%=      5-min Rain = 0
KCL2 091215Z 32006KT M04/M05 A3032 RMK A01 T10421049  RH  095%=      5-min Rain = 0
KCL2 091216Z 32006KT M04/M05 A3032 RMK A01 T10421049  RH  095%=      5-min Rain = 0
KCL2 091217Z 32006KT M04/M05 A3032 RMK A01 T10421049  RH  095%=      5-min Rain = 0
KCL2 091218Z 32006KT M04/M05 A3032 RMK A01 T10421049  RH  095%=      5-min Rain = 0
KCL2 091219Z 32007KT M04/M05 A3032 RMK A01 T10421049  RH  095%=      5-min Rain = 0
KCL2 091220Z 32006KT M04/M05 A3032 RMK A01 T10421049  RH  095%=      5-min Rain = 0
KCL2 091221Z 32007KT M04/M05 A3032 RMK A01 T10431049  RH  095%=      5-min Rain = 0
KCL2 091222Z 32006KT M04/M05 A3032 RMK A01 T10431049  RH  095%=      5-min Rain = 0
KCL2 091223Z 32007KT M04/M05 A3032 RMK A01 T10431049  RH  095%=      5-min Rain = 0
KCL2 091224Z 32007KT M04/M05 A3032 RMK A01 T10431049  RH  095%=      5-min Rain = 0
KCL2 091225Z 32006KT M04/M05 A3032 RMK A01 T10431050  RH  095%=      5-min Rain = 0
KCL2 091226Z 32007KT M04/M05 A3032 RMK A01 T10431050  RH  095%=      5-min Rain = 0
KCL2 091227Z 32007KT M04/M05 A3032 RMK A01 T10431050  RH  095%=      5-min Rain = 0
KCL2 091228Z 32007KT M04/M05 A3032 RMK A01 T10431050  RH  095%=      5-min Rain = 0
KCL2 091229Z 32007KT M04/M05 A3032 RMK A01 T10431049  RH  095%=      5-min Rain = 0
KCL2 091230Z 32007KT M04/M05 A3032 RMK A01 T10421049  RH  095%=      5-min Rain = 0
KCL2 091231Z 33007KT M04/M05 A3032 RMK A01 T10421049  RH  095%=      5-min Rain = 0
KCL2 091232Z 32007KT M04/M05 A3032 RMK A01 T10421049  RH  095%=      5-min Rain = 0
KCL2 091233Z 33007KT M04/M05 A3032 RMK A01 T10421050  RH  095%=      5-min Rain = 0
KCL2 091234Z 32007KT M04/M05 A3033 RMK A01 T10421050  RH  095%=      5-min Rain = 0
KCL2 091235Z 32006KT M04/M05 A3033 RMK A01 T10421050  RH  094%=      5-min Rain = 0
KCL2 091236Z 32007KT M04/M05 A3033 RMK A01 T10421050  RH  094%=      5-min Rain = 0
KCL2 091237Z 32007KT M04/M05 A3033 RMK A01 T10421050  RH  094%=      5-min Rain = 0
KCL2 091238Z 32007KT M04/M05 A3033 RMK A01 T10421050  RH  094%=      5-min Rain = 0
KCL2 091239Z 32007KT M04/M05 A3033 RMK A01 T10421050  RH  094%=      5-min Rain = 0
KCL2 091240Z 32007KT M04/M05 A3033 RMK A01 T10421050  RH  094%=      5-min Rain = 0
KCL2 091241Z 32006KT M04/M05 A3033 RMK A01 T10421050  RH  094%=      5-min Rain = 0
KCL2 091242Z 32007KT M04/M05 A3033 RMK A01 T10421050  RH  094%=      5-min Rain = 0
KCL2 091243Z 32007KT M04/M05 A3033 RMK A01 T10421050  RH  094%=      5-min Rain = 0
KCL2 091244Z 32007KT M04/M05 A3033 RMK A01 T10421050  RH  094%=      5-min Rain = 0
KCL2 091245Z 32007KT M04/M05 A3033 RMK A01 T10421050  RH  094%=      5-min Rain = 0
KCL2 091246Z 32007KT M04/M05 A3033 RMK A01 T10421050  RH  094%=      5-min Rain = 0
KCL2 091247Z 32007KT M04/M05 A3033 RMK A01 T10421050  RH  094%=      5-min Rain = 0
KCL2 091248Z 32007KT M04/M05 A3033 RMK A01 T10421050  RH  094%=      5-min Rain = 0
KCL2 091249Z 32006KT M04/M05 A3033 RMK A01 T10421051  RH  094%=      5-min Rain = 0
KCL2 091250Z 32007KT M04/M05 A3033 RMK A01 T10421051  RH  094%=      5-min Rain = 0
KCL2 091251Z 32007KT M04/M05 A3033 RMK A01 T10421051  RH  094%=      5-min Rain = 0
KCL2 091252Z 32007KT M04/M05 A3033 RMK A01 T10431052  RH  094%=      5-min Rain = 0
KCL2 091253Z 32007KT M04/M05 A3033 RMK A01 T10431051  RH  094%=      5-min Rain = 0
KCL2 091254Z 32007KT M04/M05 A3033 RMK A01 T10431051  RH  094%=      5-min Rain = 0
KCL2 091255Z 32007KT M04/M05 A3033 RMK A01 T10431051  RH  094%=      5-min Rain = 0
KCL2 091256Z 32007KT M04/M05 A3033 RMK A01 T10431052  RH  094%=      5-min Rain = 0
KCL2 091257Z 32006KT M04/M05 A3033 RMK A01 T10431052  RH  094%=      5-min Rain = 0
KCL2 091258Z 32006KT M04/M05 A3033 RMK A01 T10431051  RH  094%=      5-min Rain = 0
KCL2 091259Z 32006KT M04/M05 A3033 RMK A01 T10431052  RH  094%=      5-min Rain = 0
KCL2 091300Z 31006KT M04/M05 A3033 RMK A01 T10431052  RH  094%=      5-min Rain = 0
KCL2 091301Z 31007KT M04/M05 A3033 RMK A01 T10431052  RH  094%=      5-min Rain = 0
KCL2 091302Z 31006KT M04/M05 A3033 RMK A01 T10431052  RH  094%=      5-min Rain = 0
KCL2 091303Z 31006KT M04/M05 A3033 RMK A01 T10431052  RH  094%=      5-min Rain = 0
KCL2 091304Z 31006KT M04/M05 A3033 RMK A01 T10431052  RH  094%=      5-min Rain = 0
KCL2 091305Z 31005KT M04/M05 A3033 RMK A01 T10431052  RH  094%=      5-min Rain = 0
KCL2 091306Z 31005KT M04/M05 A3033 RMK A01 T10431052  RH  094%=      5-min Rain = 0
KCL2 091307Z 31006KT M04/M05 A3033 RMK A01 T10441052  RH  094%=      5-min Rain = 0
KCL2 091308Z 32006KT M04/M05 A3033 RMK A01 T10441053  RH  094%=      5-min Rain = 0
KCL2 091309Z 31005KT M04/M05 A3033 RMK A01 T10441053  RH  094%=      5-min Rain = 0
KCL2 091310Z 32006KT M04/M05 A3034 RMK A01 T10441053  RH  094%=      5-min Rain = 0
KCL2 091311Z 32006KT M05/M05 A3034 RMK A01 T10451053  RH  094%=      5-min Rain = 0
KCL2 091312Z 32006KT M05/M05 A3034 RMK A01 T10451053  RH  094%=      5-min Rain = 0
KCL2 091313Z 32006KT M05/M05 A3034 RMK A01 T10451053  RH  094%=      5-min Rain = 0
KCL2 091314Z 32006KT M05/M05 A3034 RMK A01 T10451053  RH  094%=      5-min Rain = 0
KCL2 091315Z 32007KT M05/M05 A3034 RMK A01 T10451053  RH  094%=      5-min Rain = 0
KCL2 091316Z 32007KT M05/M05 A3034 RMK A01 T10451053  RH  094%=      5-min Rain = 0
KCL2 091317Z 32006KT M05/M05 A3034 RMK A01 T10451053  RH  094%=      5-min Rain = 0
KCL2 091318Z 32006KT M05/M05 A3034 RMK A01 T10451053  RH  094%=      5-min Rain = 0
KCL2 091319Z 32006KT M05/M05 A3034 RMK A01 T10451053  RH  094%=      5-min Rain = 0
KCL2 091320Z 32006KT M05/M05 A3034 RMK A01 T10451053  RH  094%=      5-min Rain = 0
KCL2 091321Z 32006KT M05/M05 A3034 RMK A01 T10451053  RH  094%=      5-min Rain = 0
KCL2 091322Z 32006KT M05/M05 A3034 RMK A01 T10451053  RH  094%=      5-min Rain = 0
KCL2 091323Z 32006KT M05/M05 A3034 RMK A01 T10451053  RH  094%=      5-min Rain = 0
KCL2 091324Z 32006KT M05/M05 A3034 RMK A01 T10451053  RH  094%=      5-min Rain = 0
KCL2 091325Z 32006KT M05/M05 A3034 RMK A01 T10451054  RH  094%=      5-min Rain = 0
KCL2 091326Z 32006KT M05/M05 A3034 RMK A01 T10451054  RH  094%=      5-min Rain = 0
KCL2 091327Z 32006KT M05/M05 A3034 RMK A01 T10451054  RH  094%=      5-min Rain = 0
KCL2 091328Z 32006KT M05/M05 A3034 RMK A01 T10451054  RH  094%=      5-min Rain = 0
KCL2 091329Z 32006KT M05/M05 A3034 RMK A01 T10461054  RH  094%=      5-min Rain = 0
KCL2 091330Z 32006KT M05/M06 A3034 RMK A01 T10461055  RH  094%=      5-min Rain = 0
KCL2 091331Z 32006KT M05/M06 A3034 RMK A01 T10461055  RH  094%=      5-min Rain = 0
KCL2 091332Z 32006KT M05/M06 A3034 RMK A01 T10461055  RH  094%=      5-min Rain = 0
KCL2 091333Z 32006KT M05/M06 A3034 RMK A01 T10471055  RH  094%=      5-min Rain = 0
KCL2 091334Z 32007KT M05/M06 A3034 RMK A01 T10471055  RH  094%=      5-min Rain = 0
KCL2 091335Z 32007KT M05/M06 A3035 RMK A01 T10471055  RH  094%=      5-min Rain = 0
KCL2 091336Z 32007KT M05/M06 A3035 RMK A01 T10471055  RH  094%=      5-min Rain = 0
KCL2 091337Z 32007KT M05/M06 A3035 RMK A01 T10471055  RH  094%=      5-min Rain = 0
KCL2 091338Z 32007KT M05/M06 A3035 RMK A01 T10471055  RH  094%=      5-min Rain = 0
KCL2 091339Z 32007KT M05/M06 A3035 RMK A01 T10471055  RH  094%=      5-min Rain = 0
KCL2 091340Z 32007KT M05/M06 A3035 RMK A01 T10471055  RH  094%=      5-min Rain = 0
KCL2 091341Z 32007KT M05/M06 A3035 RMK A01 T10471055  RH  094%=      5-min Rain = 0
KCL2 091342Z 32006KT M05/M06 A3035 RMK A01 T10461055  RH  094%=      5-min Rain = 0
KCL2 091343Z 32007KT M05/M05 A3035 RMK A01 T10461054  RH  094%=      5-min Rain = 0
KCL2 091344Z 32006KT M05/M05 A3035 RMK A01 T10461054  RH  094%=      5-min Rain = 0
KCL2 091345Z 32007KT M05/M05 A3034 RMK A01 T10451054  RH  094%=      5-min Rain = 0
KCL2 091346Z 32007KT M05/M05 A3034 RMK A01 T10451053  RH  094%=      5-min Rain = 0
KCL2 091347Z 32007KT M05/M05 A3034 RMK A01 T10451054  RH  094%=      5-min Rain = 0
KCL2 091348Z 32007KT M05/M05 A3034 RMK A01 T10451054  RH  094%=      5-min Rain = 0
KCL2 091349Z 32007KT M05/M05 A3034 RMK A01 T10451054  RH  093%=      5-min Rain = 0
KCL2 091350Z 32007KT M05/M05 A3034 RMK A01 T10451054  RH  093%=      5-min Rain = 0
KCL2 091351Z 32007KT M04/M05 A3034 RMK A01 T10441053  RH  093%=      5-min Rain = 0
KCL2 091352Z 32007KT M04/M05 A3034 RMK A01 T10441053  RH  093%=      5-min Rain = 0
KCL2 091353Z 32007KT M04/M05 A3034 RMK A01 T10431052  RH  093%=      5-min Rain = 0
KCL2 091354Z 32007KT M04/M05 A3034 RMK A01 T10421052  RH  093%=      5-min Rain = 0
KCL2 091355Z 32007KT M04/M05 A3035 RMK A01 T10421052  RH  093%=      5-min Rain = 0
KCL2 091356Z 32007KT M04/M05 A3035 RMK A01 T10421052  RH  093%=      5-min Rain = 0
KCL2 091357Z 32006KT M04/M05 A3035 RMK A01 T10421052  RH  093%=      5-min Rain = 0
KCL2 091358Z 32006KT M04/M05 A3035 RMK A01 T10421053  RH  092%=      5-min Rain = 0
KCL2 091359Z 32007KT M04/M05 A3035 RMK A01 T10421052  RH  093%=      5-min Rain = 0
KCL2 091400Z 32006KT M04/M05 A3035 RMK A01 T10421052  RH  093%=      5-min Rain = 0
KCL2 091401Z 32006KT M04/M05 A3035 RMK A01 T10421053  RH  093%=      5-min Rain = 0
KCL2 091402Z 32005KT M04/M05 A3035 RMK A01 T10421053  RH  093%=      5-min Rain = 0
KCL2 091403Z 32005KT M04/M05 A3035 RMK A01 T10431053  RH  093%=      5-min Rain = 0
KCL2 091404Z 32006KT M04/M05 A3035 RMK A01 T10421052  RH  093%=      5-min Rain = 0
KCL2 091405Z 32006KT M04/M05 A3035 RMK A01 T10431052  RH  093%=      5-min Rain = 0
KCL2 091406Z 32005KT M04/M05 A3035 RMK A01 T10421052  RH  093%=      5-min Rain = 0
KCL2 091407Z 32005KT M04/M05 A3035 RMK A01 T10421052  RH  093%=      5-min Rain = 0
KCL2 091408Z 32005KT M04/M05 A3035 RMK A01 T10431052  RH  093%=      5-min Rain = 0
KCL2 091409Z 32006KT M04/M05 A3035 RMK A01 T10431052  RH  093%=      5-min Rain = 0
KCL2 091410Z 32005KT M04/M05 A3035 RMK A01 T10421052  RH  093%=      5-min Rain = 0
KCL2 091411Z 32005KT M04/M05 A3035 RMK A01 T10421052  RH  093%=      5-min Rain = 0
KCL2 091412Z 32005KT M04/M05 A3035 RMK A01 T10411051  RH  093%=      5-min Rain = 0
KCL2 091413Z 33005KT M04/M05 A3035 RMK A01 T10411051  RH  093%=      5-min Rain = 0
KCL2 091414Z 33005KT M04/M05 A3036 RMK A01 T10411050  RH  093%=      5-min Rain = 0
KCL2 091415Z 33005KT M04/M05 A3036 RMK A01 T10411051  RH  093%=      5-min Rain = 0
KCL2 091416Z 32005KT M04/M05 A3036 RMK A01 T10411051  RH  092%=      5-min Rain = 0
KCL2 091417Z 32005KT M04/M05 A3036 RMK A01 T10411052  RH  092%=      5-min Rain = 0
KCL2 091418Z 32006KT M04/M05 A3036 RMK A01 T10411051  RH  092%=      5-min Rain = 0
KCL2 091419Z 32005KT M04/M05 A3036 RMK A01 T10411052  RH  092%=      5-min Rain = 0
KCL2 091420Z 32006KT M04/M05 A3036 RMK A01 T10411051  RH  092%=      5-min Rain = 0
KCL2 091421Z 32006KT M04/M05 A3036 RMK A01 T10401051  RH  092%=      5-min Rain = 0
KCL2 091422Z 33006KT M04/M05 A3036 RMK A01 T10401051  RH  092%=      5-min Rain = 0
KCL2 091423Z 32006KT M04/M05 A3036 RMK A01 T10401051  RH  092%=      5-min Rain = 0
KCL2 091424Z 32006KT M04/M05 A3036 RMK A01 T10401051  RH  092%=      5-min Rain = 0
KCL2 091425Z 32005KT M04/M05 A3036 RMK A01 T10401051  RH  092%=      5-min Rain = 0
KCL2 091426Z 33005KT M04/M05 A3036 RMK A01 T10401051  RH  092%=      5-min Rain = 0
KCL2 091427Z 33005KT M04/M05 A3036 RMK A01 T10401050  RH  092%=      5-min Rain = 0
KCL2 091428Z 33005KT M04/M05 A3036 RMK A01 T10401050  RH  092%=      5-min Rain = 0
KCL2 091429Z 32006KT M04/M05 A3036 RMK A01 T10401050  RH  092%=      5-min Rain = 0
KCL2 091430Z 33006KT M04/M05 A3036 RMK A01 T10401051  RH  092%=      5-min Rain = 0
KCL2 091431Z 33006KT M04/M05 A3036 RMK A01 T10391050  RH  092%=      5-min Rain = 0
KCL2 091432Z 32005KT M04/M05 A3036 RMK A01 T10381050  RH  092%=      5-min Rain = 0
KCL2 091433Z 32007KT M04/M05 A3036 RMK A01 T10381050  RH  092%=      5-min Rain = 0
KCL2 091434Z 33006KT M04/M05 A3036 RMK A01 T10381049  RH  092%=      5-min Rain = 0
KCL2 091435Z 32006KT M04/M05 A3036 RMK A01 T10381049  RH  092%=      5-min Rain = 0
KCL2 091436Z 32006KT M04/M05 A3036 RMK A01 T10381048  RH  092%=      5-min Rain = 0
KCL2 091437Z 32005KT M04/M05 A3036 RMK A01 T10371048  RH  092%=      5-min Rain = 0
KCL2 091438Z 32006KT M04/M05 A3037 RMK A01 T10371047  RH  092%=      5-min Rain = 0
KCL2 091439Z 32005KT M04/M05 A3037 RMK A01 T10361047  RH  092%=      5-min Rain = 0
KCL2 091440Z 32006KT M04/M05 A3037 RMK A01 T10361046  RH  092%=      5-min Rain = 0
KCL2 091441Z 32006KT M04/M05 A3037 RMK A01 T10351046  RH  092%=      5-min Rain = 0
KCL2 091442Z 32007KT M04/M05 A3037 RMK A01 T10351046  RH  092%=      5-min Rain = 0
KCL2 091443Z 31006KT M03/M05 A3037 RMK A01 T10341045  RH  092%=      5-min Rain = 0
KCL2 091444Z 31006KT M03/M05 A3037 RMK A01 T10331045  RH  092%=      5-min Rain = 0
KCL2 091445Z 32005KT M03/M04 A3037 RMK A01 T10331044  RH  092%=      5-min Rain = 0
KCL2 091446Z 31005KT M03/M04 A3037 RMK A01 T10331044  RH  092%=      5-min Rain = 0
KCL2 091447Z 32006KT M03/M04 A3037 RMK A01 T10331044  RH  092%=      5-min Rain = 0
KCL2 091448Z 32007KT M03/M04 A3037 RMK A01 T10321044  RH  091%=      5-min Rain = 0
KCL2 091449Z 31007KT M03/M05 A3037 RMK A01 T10321045  RH  091%=      5-min Rain = 0
KCL2 091450Z 32007KT M03/M05 A3037 RMK A01 T10321045  RH  091%=      5-min Rain = 0
KCL2 091451Z 31007KT M03/M05 A3037 RMK A01 T10321045  RH  091%=      5-min Rain = 0
KCL2 091452Z 31007KT M03/M05 A3037 RMK A01 T10321045  RH  091%=      5-min Rain = 0
KCL2 091453Z 32007KT M03/M05 A3037 RMK A01 T10321045  RH  091%=      5-min Rain = 0
KCL2 091454Z 31008KT M03/M05 A3037 RMK A01 T10321045  RH  091%=      5-min Rain = 0
KCL2 091455Z 31008KT M03/M04 A3037 RMK A01 T10321044  RH  091%=      5-min Rain = 0
KCL2 091456Z 31008KT M03/M04 A3037 RMK A01 T10311044  RH  091%=      5-min Rain = 0
KCL2 091457Z 31007KT M03/M05 A3037 RMK A01 T10311045  RH  090%=      5-min Rain = 0
KCL2 091458Z 31007KT M03/M04 A3037 RMK A01 T10311044  RH  091%=      5-min Rain = 0
KCL2 091459Z 31007KT M03/M04 A3037 RMK A01 T10301043  RH  091%=      5-min Rain = 0
KCL2 091500Z 31008KT M03/M04 A3037 RMK A01 T10301042  RH  091%=      5-min Rain = 0
KCL2 091501Z 31008KT M03/M04 A3037 RMK A01 T10291042  RH  091%=      5-min Rain = 0
KCL2 091502Z 31007KT M03/M04 A3037 RMK A01 T10291043  RH  090%=      5-min Rain = 0
KCL2 091503Z 30007KT M03/M04 A3038 RMK A01 T10291043  RH  090%=      5-min Rain = 0
KCL2 091504Z 31008KT M03/M04 A3038 RMK A01 T10281041  RH  091%=      5-min Rain = 0
KCL2 091505Z 31007KT M03/M04 A3038 RMK A01 T10281041  RH  091%=      5-min Rain = 0
KCL2 091506Z 31009KT M03/M04 A3038 RMK A01 T10281041  RH  091%=      5-min Rain = 0
KCL2 091507Z 30008KT M03/M04 A3038 RMK A01 T10281043  RH  090%=      5-min Rain = 0
KCL2 091508Z 30008KT M03/M04 A3038 RMK A01 T10281043  RH  090%=      5-min Rain = 0
KCL2 091509Z 30008KT M03/M04 A3038 RMK A01 T10281042  RH  090%=      5-min Rain = 0
KCL2 091510Z 30007KT M03/M04 A3038 RMK A01 T10281042  RH  090%=      5-min Rain = 0
KCL2 091511Z 31008KT M03/M04 A3038 RMK A01 T10281042  RH  090%=      5-min Rain = 0
KCL2 091512Z 31007KT M03/M04 A3038 RMK A01 T10281043  RH  090%=      5-min Rain = 0
KCL2 091513Z 31008KT M03/M04 A3038 RMK A01 T10271041  RH  090%=      5-min Rain = 0
KCL2 091514Z 31006KT M03/M04 A3038 RMK A01 T10271041  RH  090%=      5-min Rain = 0
KCL2 091515Z 31008KT M03/M04 A3038 RMK A01 T10261039  RH  091%=      5-min Rain = 0
KCL2 091516Z 30006KT M03/M04 A3038 RMK A01 T10261039  RH  091%=      5-min Rain = 0
KCL2 091517Z 31007KT M03/M04 A3038 RMK A01 T10261039  RH  091%=      5-min Rain = 0
KCL2 091518Z 31006KT M03/M04 A3038 RMK A01 T10251039  RH  091%=      5-min Rain = 0
KCL2 091519Z 30005KT M02/M04 A3038 RMK A01 T10241037  RH  091%=      5-min Rain = 0
KCL2 091520Z 30007KT M02/M03 A3038 RMK A01 T10241034  RH  092%=      5-min Rain = 0
KCL2 091521Z 30006KT M02/M03 A3038 RMK A01 T10231034  RH  092%=      5-min Rain = 0
KCL2 091522Z 31006KT M02/M04 A3038 RMK A01 T10231035  RH  092%=      5-min Rain = 0
KCL2 091523Z 31007KT M02/M04 A3038 RMK A01 T10231036  RH  091%=      5-min Rain = 0
KCL2 091524Z 30008KT M02/M04 A3038 RMK A01 T10231037  RH  091%=      5-min Rain = 0
KCL2 091525Z 31008KT M02/M04 A3038 RMK A01 T10231037  RH  090%=      5-min Rain = 0
KCL2 091526Z 31007KT M02/M04 A3038 RMK A01 T10231038  RH  090%=      5-min Rain = 0
KCL2 091527Z 31008KT M02/M04 A3038 RMK A01 T10221037  RH  090%=      5-min Rain = 0
KCL2 091528Z 30006KT M02/M04 A3038 RMK A01 T10221037  RH  090%=      5-min Rain = 0
KCL2 091529Z 30007KT M02/M04 A3038 RMK A01 T10221035  RH  090%=      5-min Rain = 0
KCL2 091530Z 31008KT M02/M04 A3038 RMK A01 T10221035  RH  090%=      5-min Rain = 0
KCL2 091531Z 31008KT M02/M04 A3038 RMK A01 T10211036  RH  090%=      5-min Rain = 0
KCL2 091532Z 30008KT M02/M04 A3038 RMK A01 T10221037  RH  089%=      5-min Rain = 0
KCL2 091533Z 30009KT M02/M04 A3039 RMK A01 T10221038  RH  089%=      5-min Rain = 0
KCL2 091534Z 30007KT M02/M04 A3039 RMK A01 T10211038  RH  089%=      5-min Rain = 0
KCL2 091535Z 30007KT M02/M04 A3039 RMK A01 T10211037  RH  089%=      5-min Rain = 0
KCL2 091536Z 30006KT M02/M04 A3039 RMK A01 T10211035  RH  090%=      5-min Rain = 0
KCL2 091537Z 30006KT M02/M03 A3039 RMK A01 T10201033  RH  091%=      5-min Rain = 0
KCL2 091538Z 30007KT M02/M03 A3039 RMK A01 T10201031  RH  092%=      5-min Rain = 0
KCL2 091539Z 30008KT M02/M03 A3039 RMK A01 T10191030  RH  092%=      5-min Rain = 0
KCL2 091540Z 30008KT M02/M03 A3039 RMK A01 T10201032  RH  091%=      5-min Rain = 0
KCL2 091541Z 30008KT M02/M03 A3039 RMK A01 T10191031  RH  092%=      5-min Rain = 0
KCL2 091542Z 30007KT M02/M03 A3039 RMK A01 T10191031  RH  091%=      5-min Rain = 0
KCL2 091543Z 30007KT M02/M03 A3039 RMK A01 T10191032  RH  091%=      5-min Rain = 0
KCL2 091544Z 30007KT M02/M03 A3039 RMK A01 T10191031  RH  091%=      5-min Rain = 0
KCL2 091545Z 31008KT M02/M03 A3039 RMK A01 T10181031  RH  091%=      5-min Rain = 0
KCL2 091546Z 32008KT M02/M03 A3039 RMK A01 T10181031  RH  091%=      5-min Rain = 0
KCL2 091547Z 31008KT M02/M03 A3039 RMK A01 T10181032  RH  091%=      5-min Rain = 0
KCL2 091548Z 31009KT M02/M03 A3039 RMK A01 T10181032  RH  090%=      5-min Rain = 0
KCL2 091549Z 32008KT M02/M04 A3039 RMK A01 T10181035  RH  088%=      5-min Rain = 0
KCL2 091550Z 32008KT M02/M03 A3039 RMK A01 T10181033  RH  089%=      5-min Rain = 0
KCL2 091551Z 32009KT M02/M03 A3039 RMK A01 T10181033  RH  089%=      5-min Rain = 0
KCL2 091552Z 32009KT M02/M03 A3039 RMK A01 T10181034  RH  089%=      5-min Rain = 0
KCL2 091553Z 32008KT M02/M03 A3039 RMK A01 T10181034  RH  088%=      5-min Rain = 0
KCL2 091554Z 32007KT M02/M04 A3039 RMK A01 T10181035  RH  088%=      5-min Rain = 0
KCL2 091555Z 32007KT M02/M03 A3039 RMK A01 T10181034  RH  089%=      5-min Rain = 0
KCL2 091556Z 32008KT M02/M03 A3039 RMK A01 T10181033  RH  090%=      5-min Rain = 0
KCL2 091557Z 31009KT M02/M03 A3039 RMK A01 T10171032  RH  090%=      5-min Rain = 0
KCL2 091558Z 32010KT M02/M03 A3039 RMK A01 T10171031  RH  090%=      5-min Rain = 0
KCL2 091559Z 32008KT M02/M03 A3039 RMK A01 T10171033  RH  089%=      5-min Rain = 0
KCL2 091600Z 32009KT M02/M03 A3039 RMK A01 T10171032  RH  089%=      5-min Rain = 0
KCL2 091601Z 31007KT M02/M03 A3039 RMK A01 T10161032  RH  089%=      5-min Rain = 0
KCL2 091602Z 31008KT M02/M03 A3039 RMK A01 T10161029  RH  090%=      5-min Rain = 0
KCL2 091603Z 31009KT M02/M03 A3039 RMK A01 T10161031  RH  089%=      5-min Rain = 0
KCL2 091604Z 31008KT M02/M03 A3039 RMK A01 T10161032  RH  088%=      5-min Rain = 0
KCL2 091605Z 31010KT M02/M03 A3039 RMK A01 T10151031  RH  089%=      5-min Rain = 0
KCL2 091606Z 31010KT M02/M03 A3039 RMK A01 T10151033  RH  088%=      5-min Rain = 0
KCL2 091607Z 32009KT M02/M04 A304 RMK A01 T10151035  RH  087%=      5-min Rain = 0
KCL2 091608Z 31007KT M02/M04 A304 RMK A01 T10161035  RH  087%=      5-min Rain = 0
KCL2 091609Z 31007KT M02/M03 A304 RMK A01 T10151031  RH  089%=      5-min Rain = 0
KCL2 091610Z 32009KT M01/M03 A304 RMK A01 T10141030  RH  089%=      5-min Rain = 0
KCL2 091611Z 32009KT M01/M03 A304 RMK A01 T10141031  RH  088%=      5-min Rain = 0
KCL2 091612Z 31009KT M01/M03 A304 RMK A01 T10141031  RH  088%=      5-min Rain = 0
KCL2 091613Z 31008KT M01/M03 A304 RMK A01 T10141031  RH  088%=      5-min Rain = 0
KCL2 091614Z 31008KT M01/M03 A304 RMK A01 T10141030  RH  089%=      5-min Rain = 0
KCL2 091615Z 31009KT M01/M03 A304 RMK A01 T10131029  RH  089%=      5-min Rain = 0
KCL2 091616Z 31008KT M01/M03 A304 RMK A01 T10131029  RH  089%=      5-min Rain = 0
KCL2 091617Z 31008KT M01/M03 A304 RMK A01 T10131028  RH  089%=      5-min Rain = 0
KCL2 091618Z 31008KT M01/M03 A304 RMK A01 T10121027  RH  090%=      5-min Rain = 0
KCL2 091619Z 32008KT M01/M03 A304 RMK A01 T10121028  RH  089%=      5-min Rain = 0
KCL2 091620Z 32007KT M01/M03 A304 RMK A01 T10121027  RH  090%=      5-min Rain = 0
KCL2 091621Z 31006KT M01/M03 A304 RMK A01 T10121027  RH  090%=      5-min Rain = 0
KCL2 091622Z 30007KT M01/M03 A304 RMK A01 T10121026  RH  090%=      5-min Rain = 0
KCL2 091623Z 31008KT M01/M02 A304 RMK A01 T10111024  RH  091%=      5-min Rain = 0
KCL2 091624Z 31007KT M01/M03 A304 RMK A01 T10111025  RH  090%=      5-min Rain = 0
KCL2 091625Z 30006KT M01/M03 A304 RMK A01 T10111026  RH  090%=      5-min Rain = 0
KCL2 091626Z 30007KT M01/M03 A304 RMK A01 T10111025  RH  090%=      5-min Rain = 0
KCL2 091627Z 31006KT M01/M03 A304 RMK A01 T10101025  RH  090%=      5-min Rain = 0
KCL2 091628Z 30006KT M01/M02 A304 RMK A01 T10101024  RH  090%=      5-min Rain = 0
KCL2 091629Z 31008KT M01/M02 A304 RMK A01 T10101023  RH  091%=      5-min Rain = 0
KCL2 091630Z 31007KT M01/M03 A304 RMK A01 T10101025  RH  089%=      5-min Rain = 0
KCL2 091631Z 31006KT M01/M02 A304 RMK A01 T10091023  RH  090%=      5-min Rain = 0
KCL2 091632Z 30007KT M01/M02 A304 RMK A01 T10081021  RH  091%=      5-min Rain = 0
KCL2 091633Z 31009KT M01/M02 A304 RMK A01 T10081022  RH  090%=      5-min Rain = 0
KCL2 091634Z 31007KT M01/M03 A304 RMK A01 T10091025  RH  088%=      5-min Rain = 0
KCL2 091635Z 31007KT M01/M03 A304 RMK A01 T10081025  RH  088%=      5-min Rain = 0
KCL2 091636Z 31008KT M01/M03 A304 RMK A01 T10091025  RH  089%=      5-min Rain = 0
KCL2 091637Z 30008KT M01/M03 A304 RMK A01 T10081026  RH  088%=      5-min Rain = 0
KCL2 091638Z 31007KT M01/M03 A304 RMK A01 T10081025  RH  088%=      5-min Rain = 0
KCL2 091639Z 31008KT M01/M02 A304 RMK A01 T10071023  RH  089%=      5-min Rain = 0
KCL2 091640Z 31007KT M01/M02 A304 RMK A01 T10071023  RH  089%=      5-min Rain = 0
KCL2 091641Z 30007KT M01/M02 A304 RMK A01 T10061020  RH  090%=      5-min Rain = 0
KCL2 091642Z 29006KT M01/M02 A3039 RMK A01 T10051020  RH  090%=      5-min Rain = 0
KCL2 091643Z 30006KT M01/M02 A3039 RMK A01 T10061022  RH  089%=      5-min Rain = 0
KCL2 091644Z 30007KT M01/M02 A3039 RMK A01 T10051021  RH  089%=      5-min Rain = 0
KCL2 091645Z 30007KT M01/M02 A3039 RMK A01 T10061022  RH  089%=      5-min Rain = 0
KCL2 091646Z 29007KT M01/M02 A3039 RMK A01 T10051022  RH  088%=      5-min Rain = 0
KCL2 091647Z 29005KT M01/M02 A3039 RMK A01 T10051022  RH  088%=      5-min Rain = 0
KCL2 091648Z 31007KT M00/M02 A3039 RMK A01 T10041022  RH  088%=      5-min Rain = 0
KCL2 091649Z 31008KT M00/M02 A3039 RMK A01 T10041022  RH  087%=      5-min Rain = 0
KCL2 091650Z 31006KT M00/M02 A3039 RMK A01 T10031021  RH  087%=      5-min Rain = 0
KCL2 091651Z 30008KT M00/M02 A3039 RMK A01 T10011018  RH  089%=      5-min Rain = 0
KCL2 091652Z 31009KT M00/M02 A3039 RMK A01 T10011020  RH  087%=      5-min Rain = 0
KCL2 091653Z 31007KT M00/M02 A3039 RMK A01 T10011022  RH  086%=      5-min Rain = 0
KCL2 091654Z 30006KT M00/M02 A3039 RMK A01 T10011022  RH  086%=      5-min Rain = 0
KCL2 091655Z 29007KT M00/M02 A3039 RMK A01 T10011019  RH  087%=      5-min Rain = 0
KCL2 091656Z 29007KT M00/M02 A3039 RMK A01 T10021023  RH  086%=      5-min Rain = 0
KCL2 091657Z 30006KT M00/M02 A3039 RMK A01 T10021022  RH  087%=      5-min Rain = 0
KCL2 091658Z 30005KT 00/M02 A3039 RMK A01 T00011015  RH  089%=      5-min Rain = 0
KCL2 091659Z 29007KT 00/M01 A3039 RMK A01 T00031013  RH  089%=      5-min Rain = 0
KCL2 091700Z 30007KT 01/M01 A3039 RMK A01 T00051010  RH  090%=      5-min Rain = 0
KCL2 091701Z 29007KT 01/M01 A3039 RMK A01 T00061012  RH  088%=      5-min Rain = 0
KCL2 091702Z 29007KT 00/M02 A3039 RMK A01 T00041018  RH  085%=      5-min Rain = 0
KCL2 091703Z 29007KT 00/M02 A3039 RMK A01 T00041018  RH  085%=      5-min Rain = 0
KCL2 091704Z 30008KT 00/M02 A3039 RMK A01 T00041016  RH  086%=      5-min Rain = 0
KCL2 091705Z 30008KT 01/M02 A3039 RMK A01 T00051017  RH  086%=      5-min Rain = 0
KCL2 091706Z 29009KT 01/M02 A3039 RMK A01 T00051018  RH  084%=      5-min Rain = 0
KCL2 091707Z 30009KT 01/M02 A3039 RMK A01 T00051019  RH  083%=      5-min Rain = 0
KCL2 091708Z 31009KT 01/M02 A3039 RMK A01 T00061016  RH  085%=      5-min Rain = 0
KCL2 091709Z 30007KT 01/M01 A3039 RMK A01 T00081014  RH  085%=      5-min Rain = 0
KCL2 091710Z 30008KT 01/M02 A3039 RMK A01 T00091015  RH  084%=      5-min Rain = 0
KCL2 091711Z 29009KT 01/M02 A3039 RMK A01 T00081018  RH  083%=      5-min Rain = 0
KCL2 091712Z 30007KT 01/M02 A3039 RMK A01 T00081018  RH  083%=      5-min Rain = 0
KCL2 091713Z 31009KT 01/M02 A3039 RMK A01 T00091015  RH  085%=      5-min Rain = 0
KCL2 091714Z 31010KT 01/M01 A3039 RMK A01 T00101011  RH  085%=      5-min Rain = 0
KCL2 091715Z 32010KT 01/M01 A3039 RMK A01 T00121011  RH  085%=      5-min Rain = 0
KCL2 091716Z 32010KT 01/M01 A3039 RMK A01 T00131012  RH  083%=      5-min Rain = 0
KCL2 091717Z 32010KT 01/M01 A3039 RMK A01 T00141013  RH  082%=      5-min Rain = 0
KCL2 091718Z 31009KT 01/M02 A3039 RMK A01 T00141015  RH  081%=      5-min Rain = 0
KCL2 091719Z 31010KT 01/M01 A3039 RMK A01 T00141012  RH  082%=      5-min Rain = 0
KCL2 091720Z 32010KT 02/M01 A3039 RMK A01 T00151013  RH  082%=      5-min Rain = 0
KCL2 091721Z 32008KT 02/M01 A3039 RMK A01 T00161011  RH  082%=      5-min Rain = 0
KCL2 091722Z 30007KT 02/M01 A3039 RMK A01 T00171008  RH  083%=      5-min Rain = 0
KCL2 091723Z 31009KT 02/M01 A3039 RMK A01 T00171009  RH  083%=      5-min Rain = 0
KCL2 091724Z 31008KT 02/M01 A3039 RMK A01 T00181008  RH  083%=      5-min Rain = 0
KCL2 091725Z 30009KT 02/M00 A3039 RMK A01 T00201003  RH  085%=      5-min Rain = 0
KCL2 091726Z 31011KT 02/M01 A3039 RMK A01 T00211007  RH  082%=      5-min Rain = 0
KCL2 091727Z 31011KT 02/M01 A3039 RMK A01 T00191014  RH  079%=      5-min Rain = 0
KCL2 091728Z 31011KT 02/M02 A3039 RMK A01 T00171016  RH  079%=      5-min Rain = 0
KCL2 091729Z 31011KT 02/M02 A3039 RMK A01 T00171016  RH  079%=      5-min Rain = 0
KCL2 091730Z 31010KT 02/M01 A3039 RMK A01 T00181013  RH  080%=      5-min Rain = 0
KCL2 091731Z 32011KT 02/M01 A3039 RMK A01 T00201009  RH  081%=      5-min Rain = 0.01
KCL2 091732Z 32009KT 02/M01 A3039 RMK A01 T00211010  RH  080%=      5-min Rain = 0
KCL2 091733Z 31010KT 02/M01 A3039 RMK A01 T00221009  RH  080%=      5-min Rain = 0
KCL2 091734Z 31013KT 02/M01 A3039 RMK A01 T00221012  RH  078%=      5-min Rain = 0
KCL2 091735Z 31012KT 02/M02 A3039 RMK A01 T00211019  RH  075%=      5-min Rain = 0
KCL2 091736Z 31009KT 02/M02 A3039 RMK A01 T00201020  RH  075%=      5-min Rain = 0
KCL2 091737Z 31010KT 02/M01 A3039 RMK A01 T00211011  RH  079%=      5-min Rain = 0
KCL2 091738Z 32010KT 02/M01 A3039 RMK A01 T00221010  RH  079%=      5-min Rain = 0
KCL2 091739Z 32010KT 02/M01 A3039 RMK A01 T00241006  RH  081%=      5-min Rain = 0
KCL2 091740Z 31010KT 03/M01 A3039 RMK A01 T00251009  RH  078%=      5-min Rain = 0
KCL2 091741Z 30011KT 03/M01 A3039 RMK A01 T00251013  RH  076%=      5-min Rain = 0
KCL2 091742Z 31012KT 02/M02 A3039 RMK A01 T00221019  RH  074%=      5-min Rain = 0
KCL2 091743Z 30010KT 02/M02 A3039 RMK A01 T00191021  RH  075%=      5-min Rain = 0
KCL2 091744Z 31012KT 02/M02 A3039 RMK A01 T00181018  RH  077%=      5-min Rain = 0
KCL2 091745Z 31012KT 02/M02 A3038 RMK A01 T00171022  RH  075%=      5-min Rain = 0
KCL2 091746Z 31012KT 02/M02 A3038 RMK A01 T00171022  RH  075%=      5-min Rain = 0
KCL2 091747Z 31011KT 02/M02 A3038 RMK A01 T00171021  RH  076%=      5-min Rain = 0
KCL2 091748Z 31009KT 02/M02 A3038 RMK A01 T00181018  RH  077%=      5-min Rain = 0
KCL2 091749Z 30012KT 02/M02 A3038 RMK A01 T00191015  RH  078%=      5-min Rain = 0
KCL2 091750Z 31010KT 02/M02 A3038 RMK A01 T00201015  RH  077%=      5-min Rain = 0
KCL2 091751Z 30011KT 02/M01 A3038 RMK A01 T00221013  RH  078%=      5-min Rain = 0
KCL2 091752Z 31011KT 02/M02 A3038 RMK A01 T00221016  RH  076%=      5-min Rain = 0
KCL2 091753Z 31011KT 02/M02 A3038 RMK A01 T00221015  RH  076%=      5-min Rain = 0
KCL2 091754Z 31008KT 02/M02 A3038 RMK A01 T00221016  RH  076%=      5-min Rain = 0
KCL2 091755Z 32011KT 02/M01 A3038 RMK A01 T00241009  RH  079%=      5-min Rain = 0
KCL2 091756Z 31011KT 02/M02 A3038 RMK A01 T00241015  RH  075%=      5-min Rain = 0
KCL2 091757Z 32012KT 02/M02 A3038 RMK A01 T00241015  RH  075%=      5-min Rain = 0
KCL2 091758Z 31011KT 02/M02 A3038 RMK A01 T00241015  RH  075%=      5-min Rain = 0
KCL2 091759Z 31012KT 02/M02 A3038 RMK A01 T00241017  RH  074%=      5-min Rain = 0
KCL2 091800Z 31012KT 02/M02 A3038 RMK A01 T00231019  RH  074%=      5-min Rain = 0
KCL2 091801Z 31013KT 02/M02 A3037 RMK A01 T00231018  RH  074%=      5-min Rain = 0
KCL2 091802Z 32011KT 02/M02 A3038 RMK A01 T00231018  RH  074%=      5-min Rain = 0
KCL2 091803Z 32010KT 02/M02 A3037 RMK A01 T00241016  RH  075%=      5-min Rain = 0
KCL2 091804Z 32010KT 02/M01 A3037 RMK A01 T00241012  RH  077%=      5-min Rain = 0
KCL2 091805Z 32012KT 03/M01 A3037 RMK A01 T00251012  RH  076%=      5-min Rain = 0
KCL2 091806Z 32013KT 03/M02 A3037 RMK A01 T00261015  RH  075%=      5-min Rain = 0
KCL2 091807Z 32011KT 03/M02 A3037 RMK A01 T00251016  RH  074%=      5-min Rain = 0
KCL2 091808Z 30012KT 03/M02 A3037 RMK A01 T00251016  RH  074%=      5-min Rain = 0
KCL2 091809Z 30012KT 03/M02 A3037 RMK A01 T00251016  RH  074%=      5-min Rain = 0
KCL2 091810Z 31011KT 03/M02 A3037 RMK A01 T00251019  RH  073%=      5-min Rain = 0
KCL2 091811Z 32012KT 02/M02 A3037 RMK A01 T00241017  RH  074%=      5-min Rain = 0
KCL2 091812Z 32013KT 03/M02 A3037 RMK A01 T00251016  RH  074%=      5-min Rain = 0
KCL2 091813Z 32011KT 03/M02 A3037 RMK A01 T00261018  RH  073%=      5-min Rain = 0
KCL2 091814Z 32010KT 03/M02 A3037 RMK A01 T00251017  RH  073%=      5-min Rain = 0
KCL2 091815Z 32010KT 03/M02 A3037 RMK A01 T00261017  RH  073%=      5-min Rain = 0
KCL2 091816Z 31011KT 03/M02 A3037 RMK A01 T00261018  RH  073%=      5-min Rain = 0
KCL2 091817Z 31009KT 03/M02 A3037 RMK A01 T00261017  RH  073%=      5-min Rain = 0
KCL2 091818Z 32008KT 03/M01 A3037 RMK A01 T00271014  RH  074%=      5-min Rain = 0
KCL2 091819Z 33010KT 03/M01 A3037 RMK A01 T00291012  RH  075%=      5-min Rain = 0
KCL2 091820Z 32009KT 03/M01 A3037 RMK A01 T00291014  RH  073%=      5-min Rain = 0
KCL2 091821Z 31008KT 03/M01 A3037 RMK A01 T00301013  RH  073%=      5-min Rain = 0
KCL2 091822Z 31009KT 03/M01 A3037 RMK A01 T00321008  RH  075%=      5-min Rain = 0
KCL2 091823Z 31009KT 03/M01 A3037 RMK A01 T00321011  RH  073%=      5-min Rain = 0
KCL2 091824Z 31008KT 03/M01 A3037 RMK A01 T00331008  RH  075%=      5-min Rain = 0
KCL2 091825Z 31011KT 03/M01 A3036 RMK A01 T00331010  RH  073%=      5-min Rain = 0
KCL2 091826Z 31010KT 03/M02 A3036 RMK A01 T00331016  RH  070%=      5-min Rain = 0
KCL2 091827Z 30010KT 03/M01 A3036 RMK A01 T00321013  RH  072%=      5-min Rain = 0
KCL2 091828Z 32010KT 03/M01 A3036 RMK A01 T00321014  RH  072%=      5-min Rain = 0
KCL2 091829Z 32012KT 03/M01 A3036 RMK A01 T00331012  RH  072%=      5-min Rain = 0
KCL2 091830Z 33011KT 03/M02 A3036 RMK A01 T00341015  RH  070%=      5-min Rain = 0
KCL2 091831Z 32011KT 03/M02 A3036 RMK A01 T00341016  RH  070%=      5-min Rain = 0
KCL2 091832Z 33010KT 03/M02 A3036 RMK A01 T00341015  RH  070%=      5-min Rain = 0
KCL2 091833Z 32010KT 03/M01 A3036 RMK A01 T00341014  RH  071%=      5-min Rain = 0
KCL2 091834Z 31009KT 04/M01 A3036 RMK A01 T00351012  RH  071%=      5-min Rain = 0
KCL2 091835Z 31010KT 04/M01 A3036 RMK A01 T00371009  RH  072%=      5-min Rain = 0
KCL2 091836Z 31008KT 04/M01 A3036 RMK A01 T00371012  RH  070%=      5-min Rain = 0
KCL2 091837Z 31010KT 04/M01 A3036 RMK A01 T00371010  RH  071%=      5-min Rain = 0
KCL2 091838Z 31011KT 04/M01 A3036 RMK A01 T00381014  RH  069%=      5-min Rain = 0
KCL2 091839Z 33010KT 04/M01 A3036 RMK A01 T00371013  RH  069%=      5-min Rain = 0
KCL2 091840Z 33010KT 04/M01 A3036 RMK A01 T00381012  RH  070%=      5-min Rain = 0
KCL2 091841Z 33009KT 04/M01 A3036 RMK A01 T00381013  RH  069%=      5-min Rain = 0
KCL2 091842Z 32010KT 04/M01 A3036 RMK A01 T00391009  RH  071%=      5-min Rain = 0
KCL2 091843Z 32012KT 04/M01 A3036 RMK A01 T00401011  RH  069%=      5-min Rain = 0
KCL2 091844Z 32010KT 04/M01 A3036 RMK A01 T00411014  RH  067%=      5-min Rain = 0
KCL2 091845Z 32010KT 04/M02 A3035 RMK A01 T00411015  RH  067%=      5-min Rain = 0
KCL2 091846Z 32012KT 04/M02 A3035 RMK A01 T00411021  RH  064%=      5-min Rain = 0
KCL2 091847Z 32011KT 04/M02 A3035 RMK A01 T00411020  RH  064%=      5-min Rain = 0
KCL2 091848Z 33008KT 04/M01 A3035 RMK A01 T00421014  RH  067%=      5-min Rain = 0
KCL2 091849Z 33010KT 04/M01 A3035 RMK A01 T00441011  RH  067%=      5-min Rain = 0
KCL2 091850Z 33010KT 05/M02 A3035 RMK A01 T00451016  RH  065%=      5-min Rain = 0
KCL2 091851Z 34010KT 04/M02 A3035 RMK A01 T00441019  RH  064%=      5-min Rain = 0
KCL2 091852Z 34011KT 04/M02 A3035 RMK A01 T00431022  RH  063%=      5-min Rain = 0
KCL2 091853Z 33009KT 04/M02 A3035 RMK A01 T00421020  RH  064%=      5-min Rain = 0
KCL2 091854Z 33011KT 04/M02 A3035 RMK A01 T00431018  RH  065%=      5-min Rain = 0
KCL2 091855Z 34010KT 04/M02 A3035 RMK A01 T00441016  RH  065%=      5-min Rain = 0
KCL2 091856Z 34011KT 05/M02 A3035 RMK A01 T00451021  RH  062%=      5-min Rain = 0
KCL2 091857Z 33010KT 04/M02 A3035 RMK A01 T00441024  RH  061%=      5-min Rain = 0
KCL2 091858Z 32011KT 04/M02 A3035 RMK A01 T00441020  RH  063%=      5-min Rain = 0
KCL2 091859Z 32008KT 05/M01 A3035 RMK A01 T00461014  RH  065%=      5-min Rain = 0
KCL2 091900Z 32009KT 05/M01 A3035 RMK A01 T00481011  RH  065%=      5-min Rain = 0
KCL2 091901Z 31010KT 05/M01 A3035 RMK A01 T00491014  RH  063%=      5-min Rain = 0
KCL2 091902Z 33009KT 05/M02 A3035 RMK A01 T00491016  RH  063%=      5-min Rain = 0
KCL2 091903Z 33010KT 05/M01 A3035 RMK A01 T00491012  RH  065%=      5-min Rain = 0
KCL2 091904Z 33010KT 05/M01 A3035 RMK A01 T00511013  RH  063%=      5-min Rain = 0
KCL2 091905Z 33012KT 05/M02 A3035 RMK A01 T00511020  RH  060%=      5-min Rain = 0
KCL2 091906Z 33010KT 05/M03 A3035 RMK A01 T00491026  RH  059%=      5-min Rain = 0
KCL2 091907Z 34008KT 05/M02 A3035 RMK A01 T00481024  RH  060%=      5-min Rain = 0
KCL2 091908Z 35010KT 05/M02 A3035 RMK A01 T00491019  RH  061%=      5-min Rain = 0
KCL2 091909Z 34011KT 05/M03 A3035 RMK A01 T00491029  RH  057%=      5-min Rain = 0
KCL2 091910Z 33010KT 05/M03 A3035 RMK A01 T00471027  RH  058%=      5-min Rain = 0
KCL2 091911Z 33008KT 05/M03 A3035 RMK A01 T00481025  RH  059%=      5-min Rain = 0
KCL2 091912Z 34010KT 05/M02 A3035 RMK A01 T00511021  RH  060%=      5-min Rain = 0
KCL2 091913Z 34010KT 05/M03 A3035 RMK A01 T00511025  RH  058%=      5-min Rain = 0
KCL2 091914Z 34013KT 05/M03 A3034 RMK A01 T00501026  RH  058%=      5-min Rain = 0
KCL2 091915Z 34012KT 05/M03 A3034 RMK A01 T00481032  RH  056%=      5-min Rain = 0
KCL2 091916Z 35012KT 05/M03 A3034 RMK A01 T00461030  RH  058%=      5-min Rain = 0
KCL2 091917Z 34011KT 05/M03 A3034 RMK A01 T00451029  RH  058%=      5-min Rain = 0
KCL2 091918Z 33008KT 05/M02 A3034 RMK A01 T00461023  RH  061%=      5-min Rain = 0
KCL2 091919Z 34009KT 05/M02 A3034 RMK A01 T00481017  RH  063%=      5-min Rain = 0
KCL2 091920Z 34012KT 05/M02 A3034 RMK A01 T00511020  RH  060%=      5-min Rain = 0
KCL2 091921Z 34010KT 05/M03 A3034 RMK A01 T00501025  RH  058%=      5-min Rain = 0
KCL2 091922Z 34010KT 05/M03 A3034 RMK A01 T00491025  RH  059%=      5-min Rain = 0
KCL2 091923Z 34010KT 05/M03 A3034 RMK A01 T00491026  RH  059%=      5-min Rain = 0
KCL2 091924Z 34009KT 05/M03 A3034 RMK A01 T00481027  RH  058%=      5-min Rain = 0
KCL2 091925Z 34013KT 05/M03 A3034 RMK A01 T00491026  RH  058%=      5-min Rain = 0
KCL2 091926Z 33011KT 05/M03 A3034 RMK A01 T00501031  RH  056%=      5-min Rain = 0
KCL2 091927Z 33011KT 05/M03 A3034 RMK A01 T00491031  RH  056%=      5-min Rain = 0
KCL2 091928Z 33011KT 05/M03 A3034 RMK A01 T00481032  RH  056%=      5-min Rain = 0
KCL2 091929Z 34010KT 05/M03 A3034 RMK A01 T00481029  RH  057%=      5-min Rain = 0
KCL2 091930Z 33009KT 05/M03 A3034 RMK A01 T00491026  RH  058%=      5-min Rain = 0
KCL2 091931Z 33007KT 05/M03 A3034 RMK A01 T00501026  RH  058%=      5-min Rain = 0
KCL2 091932Z 34006KT 05/M02 A3034 RMK A01 T00511020  RH  060%=      5-min Rain = 0
KCL2 091933Z 33008KT 06/M01 A3034 RMK A01 T00551014  RH  061%=      5-min Rain = 0
KCL2 091934Z 32009KT 06/M02 A3034 RMK A01 T00571019  RH  058%=      5-min Rain = 0
KCL2 091935Z 31009KT 06/M02 A3034 RMK A01 T00591015  RH  059%=      5-min Rain = 0
KCL2 091936Z 31011KT 06/M02 A3034 RMK A01 T00611018  RH  057%=      5-min Rain = 0
KCL2 091937Z 31009KT 06/M03 A3034 RMK A01 T00591025  RH  055%=      5-min Rain = 0
KCL2 091938Z 32007KT 06/M02 A3034 RMK A01 T00581020  RH  057%=      5-min Rain = 0
KCL2 091939Z 31008KT 06/M02 A3034 RMK A01 T00611018  RH  057%=      5-min Rain = 0
KCL2 091940Z 31008KT 06/M02 A3034 RMK A01 T00611019  RH  056%=      5-min Rain = 0
KCL2 091941Z 33010KT 06/M02 A3034 RMK A01 T00611024  RH  055%=      5-min Rain = 0
KCL2 091942Z 34008KT 06/M03 A3034 RMK A01 T00581030  RH  053%=      5-min Rain = 0
KCL2 091943Z 33009KT 06/M03 A3034 RMK A01 T00561029  RH  054%=      5-min Rain = 0
KCL2 091944Z 33007KT 06/M02 A3034 RMK A01 T00571024  RH  056%=      5-min Rain = 0
KCL2 091945Z 32009KT 06/M02 A3034 RMK A01 T00611020  RH  056%=      5-min Rain = 0
KCL2 091946Z 30009KT 06/M03 A3034 RMK A01 T00631025  RH  054%=      5-min Rain = 0
KCL2 091947Z 30010KT 06/M03 A3034 RMK A01 T00611030  RH  052%=      5-min Rain = 0
KCL2 091948Z 30010KT 06/M03 A3034 RMK A01 T00611026  RH  054%=      5-min Rain = 0
KCL2 091949Z 30010KT 06/M03 A3034 RMK A01 T00611029  RH  052%=      5-min Rain = 0
KCL2 091950Z 32009KT 06/M03 A3034 RMK A01 T00601029  RH  053%=      5-min Rain = 0
KCL2 091951Z 31009KT 06/M03 A3034 RMK A01 T00591030  RH  053%=      5-min Rain = 0
KCL2 091952Z 32007KT 06/M03 A3034 RMK A01 T00581027  RH  054%=      5-min Rain = 0
KCL2 091953Z 32008KT 06/M03 A3034 RMK A01 T00591026  RH  054%=      5-min Rain = 0
KCL2 091954Z 32009KT 06/M03 A3033 RMK A01 T00611025  RH  054%=      5-min Rain = 0
KCL2 091955Z 32010KT 06/M03 A3033 RMK A01 T00611025  RH  054%=      5-min Rain = 0
KCL2 091956Z 33008KT 06/M02 A3033 RMK A01 T00621024  RH  054%=      5-min Rain = 0
KCL2 091957Z 34008KT 06/M02 A3033 RMK A01 T00631023  RH  054%=      5-min Rain = 0
KCL2 091958Z 34009KT 06/M03 A3033 RMK A01 T00621029  RH  052%=      5-min Rain = 0
KCL2 091959Z 32010KT 06/M03 A3033 RMK A01 T00601026  RH  054%=      5-min Rain = 0
KCL2 092000Z 32009KT 06/M03 A3033 RMK A01 T00621025  RH  054%=      5-min Rain = 0
KCL2 092001Z 33010KT 06/M03 A3033 RMK A01 T00621026  RH  053%=      5-min Rain = 0
KCL2 092002Z 32009KT 06/M03 A3033 RMK A01 T00611027  RH  053%=      5-min Rain = 0
KCL2 092003Z 31008KT 06/M02 A3033 RMK A01 T00621024  RH  054%=      5-min Rain = 0
KCL2 092004Z 31010KT 06/M02 A3033 RMK A01 T00641021  RH  054%=      5-min Rain = 0
KCL2 092005Z 31011KT 07/M03 A3033 RMK A01 T00651026  RH  052%=      5-min Rain = 0
KCL2 092006Z 33008KT 06/M02 A3033 RMK A01 T00641024  RH  053%=      5-min Rain = 0
KCL2 092007Z 32012KT 06/M02 A3033 RMK A01 T00641024  RH  054%=      5-min Rain = 0
KCL2 092008Z 33011KT 06/M03 A3033 RMK A01 T00631028  RH  052%=      5-min Rain = 0
KCL2 092009Z 34010KT 06/M03 A3033 RMK A01 T00611030  RH  052%=      5-min Rain = 0
KCL2 092010Z 34012KT 06/M03 A3033 RMK A01 T00601030  RH  052%=      5-min Rain = 0
KCL2 092011Z 34009KT 06/M03 A3033 RMK A01 T00601025  RH  054%=      5-min Rain = 0
KCL2 092012Z 32009KT 06/M02 A3033 RMK A01 T00621024  RH  054%=      5-min Rain = 0
KCL2 092013Z 32011KT 06/M03 A3033 RMK A01 T00641025  RH  053%=      5-min Rain = 0
KCL2 092014Z 31010KT 06/M03 A3033 RMK A01 T00641028  RH  052%=      5-min Rain = 0
KCL2 092015Z 30010KT 06/M03 A3033 RMK A01 T00631029  RH  052%=      5-min Rain = 0
KCL2 092016Z 31012KT 06/M03 A3033 RMK A01 T00621027  RH  053%=      5-min Rain = 0
KCL2 092017Z 32009KT 06/M03 A3033 RMK A01 T00621025  RH  054%=      5-min Rain = 0
KCL2 092018Z 32008KT 06/M02 A3033 RMK A01 T00631021  RH  055%=      5-min Rain = 0
KCL2 092019Z 32008KT 07/M02 A3033 RMK A01 T00651021  RH  054%=      5-min Rain = 0
KCL2 092020Z 34010KT 07/M02 A3033 RMK A01 T00661024  RH  053%=      5-min Rain = 0
KCL2 092021Z 32011KT 07/M03 A3033 RMK A01 T00661025  RH  052%=      5-min Rain = 0
KCL2 092022Z 32010KT 07/M03 A3033 RMK A01 T00661026  RH  052%=      5-min Rain = 0
KCL2 092023Z 33008KT 07/M03 A3033 RMK A01 T00661026  RH  052%=      5-min Rain = 0
KCL2 092024Z 32012KT 07/M02 A3033 RMK A01 T00661022  RH  053%=      5-min Rain = 0
KCL2 092025Z 32011KT 07/M03 A3033 RMK A01 T00651028  RH  051%=      5-min Rain = 0
KCL2 092026Z 32008KT 06/M02 A3033 RMK A01 T00631024  RH  053%=      5-min Rain = 0
KCL2 092027Z 33009KT 07/M02 A3033 RMK A01 T00651023  RH  054%=      5-min Rain = 0
KCL2 092028Z 32011KT 07/M02 A3033 RMK A01 T00661021  RH  054%=      5-min Rain = 0
KCL2 092029Z 32010KT 07/M02 A3033 RMK A01 T00661023  RH  053%=      5-min Rain = 0
KCL2 092030Z 30010KT 07/M02 A3033 RMK A01 T00651024  RH  053%=      5-min Rain = 0
KCL2 092031Z 32009KT 06/M03 A3033 RMK A01 T00641028  RH  052%=      5-min Rain = 0
KCL2 092032Z 33009KT 06/M02 A3033 RMK A01 T00641024  RH  054%=      5-min Rain = 0
KCL2 092033Z 31010G15KT 07/M02 A3033 RMK A01 T00651021  RH  054%=      5-min Rain = 0
KCL2 092034Z 32012KT 07/M03 A3033 RMK A01 T00661025  RH  052%=      5-min Rain = 0
KCL2 092035Z 33009KT 06/M03 A3033 RMK A01 T00641025  RH  053%=      5-min Rain = 0
KCL2 092036Z 31013KT 06/M02 A3033 RMK A01 T00641022  RH  054%=      5-min Rain = 0
KCL2 092037Z 30010KT 06/M03 A3033 RMK A01 T00641025  RH  053%=      5-min Rain = 0
KCL2 092038Z 30012KT 06/M02 A3033 RMK A01 T00641023  RH  054%=      5-min Rain = 0
KCL2 092039Z 30011KT 06/M02 A3033 RMK A01 T00641024  RH  053%=      5-min Rain = 0
KCL2 092040Z 30012KT 06/M02 A3033 RMK A01 T00641023  RH  054%=      5-min Rain = 0
KCL2 092041Z 30010KT 06/M02 A3033 RMK A01 T00641023  RH  053%=      5-min Rain = 0
KCL2 092042Z 29011KT 06/M02 A3033 RMK A01 T00641023  RH  054%=      5-min Rain = 0
KCL2 092043Z 32010KT 06/M02 A3033 RMK A01 T00641021  RH  054%=      5-min Rain = 0
KCL2 092044Z 32010KT 07/M02 A3033 RMK A01 T00661020  RH  054%=      5-min Rain = 0
KCL2 092045Z 32009KT 07/M02 A3033 RMK A01 T00661021  RH  054%=      5-min Rain = 0
KCL2 092046Z 32012KT 07/M02 A3033 RMK A01 T00661022  RH  053%=      5-min Rain = 0
KCL2 092047Z 32011KT 07/M02 A3033 RMK A01 T00661023  RH  053%=      5-min Rain = 0
KCL2 092048Z 31012KT 07/M02 A3033 RMK A01 T00661021  RH  054%=      5-min Rain = 0
KCL2 092049Z 31010KT 07/M02 A3033 RMK A01 T00661022  RH  054%=      5-min Rain = 0
KCL2 092050Z 31013KT 07/M02 A3033 RMK A01 T00661022  RH  053%=      5-min Rain = 0
KCL2 092051Z 32009KT 07/M02 A3033 RMK A01 T00661021  RH  054%=      5-min Rain = 0
KCL2 092052Z 32010KT 07/M02 A3033 RMK A01 T00671019  RH  054%=      5-min Rain = 0
KCL2 092053Z 31010KT 07/M02 A3033 RMK A01 T00691015  RH  055%=      5-min Rain = 0
KCL2 092054Z 31011KT 07/M02 A3033 RMK A01 T00681021  RH  053%=      5-min Rain = 0
KCL2 092055Z 32009KT 07/M02 A3033 RMK A01 T00661020  RH  054%=      5-min Rain = 0
KCL2 092056Z 34010KT 07/M02 A3033 RMK A01 T00671017  RH  055%=      5-min Rain = 0
KCL2 092057Z 33008KT 07/M02 A3033 RMK A01 T00661019  RH  054%=      5-min Rain = 0
KCL2 092058Z 32009KT 07/M02 A3033 RMK A01 T00661017  RH  055%=      5-min Rain = 0
KCL2 092059Z 30009KT 07/M02 A3033 RMK A01 T00681017  RH  055%=      5-min Rain = 0
KCL2 092100Z 32010KT 07/M02 A3033 RMK A01 T00691019  RH  054%=      5-min Rain = 0
KCL2 092101Z 33011KT 07/M02 A3033 RMK A01 T00691019  RH  053%=      5-min Rain = 0
KCL2 092102Z 34010KT 07/M02 A3033 RMK A01 T00671023  RH  053%=      5-min Rain = 0
KCL2 092103Z 33011KT 07/M02 A3033 RMK A01 T00661020  RH  054%=      5-min Rain = 0
KCL2 092104Z 34009KT 07/M02 A3033 RMK A01 T00661022  RH  053%=      5-min Rain = 0
KCL2 092105Z 32010KT 07/M02 A3033 RMK A01 T00661023  RH  053%=      5-min Rain = 0
KCL2 092106Z 34009KT 07/M02 A3033 RMK A01 T00651024  RH  053%=      5-min Rain = 0
KCL2 092107Z 34006KT 06/M02 A3033 RMK A01 T00641024  RH  053%=      5-min Rain = 0
KCL2 092108Z 33009KT 07/M02 A3033 RMK A01 T00651020  RH  055%=      5-min Rain = 0
KCL2 092109Z 32007KT 07/M02 A3033 RMK A01 T00671021  RH  054%=      5-min Rain = 0
KCL2 092110Z 32009KT 07/M02 A3033 RMK A01 T00671021  RH  053%=      5-min Rain = 0
KCL2 092111Z 31010KT 07/M02 A3033 RMK A01 T00681019  RH  054%=      5-min Rain = 0
KCL2 092112Z 32008KT 07/M02 A3033 RMK A01 T00691020  RH  053%=      5-min Rain = 0
KCL2 092113Z 32009KT 07/M02 A3033 RMK A01 T00691018  RH  054%=      5-min Rain = 0
KCL2 092114Z 34009KT 07/M02 A3033 RMK A01 T00681023  RH  052%=      5-min Rain = 0
KCL2 092115Z 34010KT 07/M02 A3033 RMK A01 T00671022  RH  053%=      5-min Rain = 0
KCL2 092116Z 34010KT 07/M02 A3033 RMK A01 T00661023  RH  053%=      5-min Rain = 0
KCL2 092117Z 31009G14KT 07/M02 A3033 RMK A01 T00651021  RH  054%=      5-min Rain = 0
KCL2 092118Z 32010KT 07/M02 A3033 RMK A01 T00661022  RH  054%=      5-min Rain = 0
KCL2 092119Z 31011KT 07/M02 A3033 RMK A01 T00661022  RH  054%=      5-min Rain = 0
KCL2 092120Z 32010KT 07/M02 A3033 RMK A01 T00661023  RH  053%=      5-min Rain = 0
KCL2 092121Z 32009KT 07/M02 A3033 RMK A01 T00661022  RH  054%=      5-min Rain = 0
KCL2 092122Z 31008KT 07/M02 A3033 RMK A01 T00651021  RH  054%=      5-min Rain = 0
KCL2 092123Z 30010KT 07/M02 A3033 RMK A01 T00661021  RH  054%=      5-min Rain = 0
KCL2 092124Z 33010KT 07/M02 A3033 RMK A01 T00661020  RH  054%=      5-min Rain = 0
KCL2 092125Z 34009KT 07/M02 A3033 RMK A01 T00671018  RH  055%=      5-min Rain = 0
KCL2 092126Z 33009KT 07/M02 A3033 RMK A01 T00661022  RH  054%=      5-min Rain = 0
KCL2 092127Z 31009KT 07/M02 A3033 RMK A01 T00661020  RH  054%=      5-min Rain = 0
KCL2 092128Z 31009KT 07/M02 A3033 RMK A01 T00661023  RH  053%=      5-min Rain = 0
KCL2 092129Z 32012KT 07/M02 A3033 RMK A01 T00661021  RH  054%=      5-min Rain = 0
KCL2 092130Z 32010KT 07/M02 A3033 RMK A01 T00651022  RH  054%=      5-min Rain = 0
KCL2 092131Z 31011KT 07/M02 A3033 RMK A01 T00651021  RH  054%=      5-min Rain = 0
KCL2 092132Z 32011KT 07/M02 A3033 RMK A01 T00651022  RH  054%=      5-min Rain = 0
KCL2 092133Z 31011KT 07/M02 A3033 RMK A01 T00651021  RH  054%=      5-min Rain = 0
KCL2 092134Z 33011KT 07/M02 A3033 RMK A01 T00651020  RH  054%=      5-min Rain = 0
KCL2 092135Z 33008KT 07/M02 A3033 RMK A01 T00651019  RH  055%=      5-min Rain = 0
KCL2 092136Z 32008KT 07/M02 A3033 RMK A01 T00661019  RH  054%=      5-min Rain = 0
KCL2 092137Z 33008KT 07/M02 A3033 RMK A01 T00661023  RH  053%=      5-min Rain = 0
KCL2 092138Z 33008KT 07/M02 A3033 RMK A01 T00651022  RH  054%=      5-min Rain = 0
KCL2 092139Z 30010KT 06/M02 A3033 RMK A01 T00641022  RH  054%=      5-min Rain = 0
KCL2 092140Z 30010KT 07/M02 A3033 RMK A01 T00651022  RH  054%=      5-min Rain = 0
KCL2 092141Z 31009KT 07/M02 A3033 RMK A01 T00651022  RH  054%=      5-min Rain = 0
KCL2 092142Z 32008KT 07/M02 A3033 RMK A01 T00651022  RH  054%=      5-min Rain = 0
KCL2 092143Z 31010KT 07/M02 A3033 RMK A01 T00651019  RH  055%=      5-min Rain = 0
KCL2 092144Z 30010KT 07/M02 A3033 RMK A01 T00661021  RH  054%=      5-min Rain = 0
KCL2 092145Z 30010KT 07/M02 A3033 RMK A01 T00651023  RH  053%=      5-min Rain = 0
KCL2 092146Z 31012KT 06/M02 A3033 RMK A01 T00641022  RH  054%=      5-min Rain = 0
KCL2 092147Z 31010KT 06/M02 A3033 RMK A01 T00641021  RH  055%=      5-min Rain = 0
KCL2 092148Z 31010KT 06/M02 A3033 RMK A01 T00641022  RH  054%=      5-min Rain = 0
KCL2 092149Z 31010KT 06/M02 A3033 RMK A01 T00631023  RH  054%=      5-min Rain = 0
KCL2 092150Z 31009KT 06/M02 A3033 RMK A01 T00621022  RH  055%=      5-min Rain = 0
KCL2 092151Z 31008KT 06/M02 A3033 RMK A01 T00631019  RH  056%=      5-min Rain = 0
KCL2 092152Z 30011KT 07/M02 A3033 RMK A01 T00661018  RH  055%=      5-min Rain = 0
KCL2 092153Z 30011KT 07/M02 A3033 RMK A01 T00651021  RH  054%=      5-min Rain = 0
KCL2 092154Z 30011KT 06/M02 A3033 RMK A01 T00631020  RH  055%=      5-min Rain = 0
KCL2 092155Z 31012KT 06/M02 A3033 RMK A01 T00641020  RH  055%=      5-min Rain = 0
KCL2 092156Z 32011KT 06/M02 A3033 RMK A01 T00631021  RH  055%=      5-min Rain = 0
KCL2 092157Z 32010KT 06/M02 A3033 RMK A01 T00631020  RH  055%=      5-min Rain = 0
KCL2 092158Z 32011KT 06/M02 A3033 RMK A01 T00631020  RH  056%=      5-min Rain = 0
KCL2 092159Z 32010KT 06/M02 A3033 RMK A01 T00631020  RH  055%=      5-min Rain = 0
KCL2 092200Z 31011KT 06/M02 A3033 RMK A01 T00631021  RH  055%=      5-min Rain = 0
KCL2 092201Z 31011KT 06/M02 A3033 RMK A01 T00621020  RH  056%=      5-min Rain = 0
KCL2 092202Z 32012KT 06/M02 A3033 RMK A01 T00641018  RH  056%=      5-min Rain = 0
KCL2 092203Z 32010KT 06/M02 A3033 RMK A01 T00631021  RH  055%=      5-min Rain = 0
KCL2 092204Z 32010KT 06/M02 A3033 RMK A01 T00631020  RH  056%=      5-min Rain = 0
KCL2 092205Z 31009KT 06/M02 A3033 RMK A01 T00631021  RH  055%=      5-min Rain = 0
KCL2 092206Z 31009KT 06/M02 A3033 RMK A01 T00621021  RH  055%=      5-min Rain = 0
KCL2 092207Z 32010KT 06/M02 A3033 RMK A01 T00621020  RH  055%=      5-min Rain = 0
KCL2 092208Z 32010KT 06/M02 A3033 RMK A01 T00621021  RH  055%=      5-min Rain = 0
KCL2 092209Z 31011KT 06/M02 A3033 RMK A01 T00621021  RH  056%=      5-min Rain = 0
KCL2 092210Z 31012KT 06/M02 A3033 RMK A01 T00611021  RH  056%=      5-min Rain = 0
KCL2 092211Z 31011KT 06/M02 A3033 RMK A01 T00611022  RH  055%=      5-min Rain = 0
KCL2 092212Z 31012KT 06/M02 A3033 RMK A01 T00601022  RH  055%=      5-min Rain = 0
KCL2 092213Z 31011KT 06/M02 A3033 RMK A01 T00601021  RH  056%=      5-min Rain = 0
KCL2 092214Z 32010KT 06/M02 A3033 RMK A01 T00601022  RH  056%=      5-min Rain = 0
KCL2 092215Z 32009KT 06/M02 A3033 RMK A01 T00591021  RH  056%=      5-min Rain = 0
KCL2 092216Z 34010KT 06/M02 A3033 RMK A01 T00591021  RH  056%=      5-min Rain = 0
KCL2 092217Z 33009KT 06/M02 A3033 RMK A01 T00591023  RH  056%=      5-min Rain = 0
KCL2 092218Z 33011KT 06/M02 A3033 RMK A01 T00591020  RH  057%=      5-min Rain = 0
KCL2 092219Z 32011KT 06/M02 A3033 RMK A01 T00591021  RH  056%=      5-min Rain = 0
KCL2 092220Z 32012KT 06/M02 A3033 RMK A01 T00591022  RH  056%=      5-min Rain = 0
KCL2 092221Z 32010KT 06/M02 A3034 RMK A01 T00581021  RH  057%=      5-min Rain = 0
KCL2 092222Z 32011KT 06/M02 A3034 RMK A01 T00581020  RH  057%=      5-min Rain = 0
KCL2 092223Z 32010KT 06/M02 A3034 RMK A01 T00581022  RH  057%=      5-min Rain = 0
KCL2 092224Z 33010KT 06/M02 A3033 RMK A01 T00581022  RH  057%=      5-min Rain = 0
KCL2 092225Z 32008KT 06/M02 A3034 RMK A01 T00581021  RH  057%=      5-min Rain = 0
KCL2 092226Z 32006KT 06/M02 A3034 RMK A01 T00581018  RH  058%=      5-min Rain = 0
KCL2 092227Z 32008KT 06/M02 A3034 RMK A01 T00591017  RH  058%=      5-min Rain = 0
KCL2 092228Z 33009KT 06/M02 A3034 RMK A01 T00601018  RH  057%=      5-min Rain = 0
KCL2 092229Z 34010KT 06/M02 A3034 RMK A01 T00591020  RH  057%=      5-min Rain = 0
KCL2 092230Z 33010KT 06/M02 A3034 RMK A01 T00571021  RH  057%=      5-min Rain = 0
KCL2 092231Z 34009KT 06/M02 A3034 RMK A01 T00561020  RH  058%=      5-min Rain = 0
KCL2 092232Z 32009KT 06/M02 A3034 RMK A01 T00561019  RH  059%=      5-min Rain = 0
KCL2 092233Z 32009KT 06/M02 A3034 RMK A01 T00561020  RH  058%=      5-min Rain = 0
KCL2 092234Z 31010KT 06/M02 A3034 RMK A01 T00561019  RH  058%=      5-min Rain = 0
KCL2 092235Z 32011KT 06/M02 A3034 RMK A01 T00561019  RH  058%=      5-min Rain = 0
KCL2 092236Z 32010KT 06/M02 A3034 RMK A01 T00561020  RH  058%=      5-min Rain = 0
KCL2 092237Z 31009KT 06/M02 A3034 RMK A01 T00561020  RH  058%=      5-min Rain = 0
KCL2 092238Z 31011KT 06/M02 A3034 RMK A01 T00561022  RH  057%=      5-min Rain = 0
KCL2 092239Z 32009KT 06/M02 A3034 RMK A01 T00551022  RH  058%=      5-min Rain = 0
KCL2 092240Z 33008KT 06/M02 A3034 RMK A01 T00551020  RH  058%=      5-min Rain = 0
KCL2 092241Z 32007KT 06/M02 A3034 RMK A01 T00551020  RH  059%=      5-min Rain = 0
KCL2 092242Z 32009KT 06/M02 A3034 RMK A01 T00551019  RH  059%=      5-min Rain = 0
KCL2 092243Z 31009KT 06/M02 A3034 RMK A01 T00551020  RH  058%=      5-min Rain = 0
KCL2 092244Z 32008KT 06/M02 A3034 RMK A01 T00551020  RH  058%=      5-min Rain = 0
KCL2 092245Z 32008KT 05/M02 A3034 RMK A01 T00541020  RH  059%=      5-min Rain = 0
KCL2 092246Z 33008KT 05/M02 A3034 RMK A01 T00541020  RH  059%=      5-min Rain = 0
KCL2 092247Z 33006KT 05/M02 A3034 RMK A01 T00541020  RH  059%=      5-min Rain = 0
KCL2 092248Z 33007KT 05/M02 A3034 RMK A01 T00531020  RH  059%=      5-min Rain = 0
KCL2 092249Z 33006KT 05/M02 A3034 RMK A01 T00531019  RH  059%=      5-min Rain = 0
KCL2 092250Z 33007KT 05/M02 A3034 RMK A01 T00531018  RH  060%=      5-min Rain = 0
KCL2 092251Z 33008KT 05/M02 A3034 RMK A01 T00531020  RH  060%=      5-min Rain = 0
KCL2 092252Z 33010KT 05/M02 A3034 RMK A01 T00521021  RH  059%=      5-min Rain = 0
KCL2 092253Z 33008KT 05/M02 A3034 RMK A01 T00511022  RH  059%=      5-min Rain = 0
KCL2 092254Z 33010KT 05/M02 A3034 RMK A01 T00501021  RH  060%=      5-min Rain = 0
KCL2 092255Z 33010KT 05/M02 A3034 RMK A01 T00491022  RH  060%=      5-min Rain = 0
KCL2 092256Z 33009KT 05/M02 A3034 RMK A01 T00491022  RH  060%=      5-min Rain = 0
KCL2 092257Z 33008KT 05/M02 A3034 RMK A01 T00481021  RH  061%=      5-min Rain = 0
KCL2 092258Z 33008KT 05/M02 A3034 RMK A01 T00481021  RH  061%=      5-min Rain = 0
KCL2 092259Z 34008KT 05/M02 A3034 RMK A01 T00481021  RH  061%=      5-min Rain = 0
KCL2 092300Z 33009KT 05/M02 A3034 RMK A01 T00471021  RH  061%=      5-min Rain = 0
KCL2 092301Z 33008KT 05/M02 A3034 RMK A01 T00471021  RH  061%=      5-min Rain = 0
KCL2 092302Z 33008KT 05/M02 A3034 RMK A01 T00461021  RH  061%=      5-min Rain = 0
KCL2 092303Z 34007KT 05/M02 A3034 RMK A01 T00461021  RH  062%=      5-min Rain = 0
KCL2 092304Z 33009KT 05/M02 A3034 RMK A01 T00451021  RH  062%=      5-min Rain = 0
KCL2 092305Z 34009KT 05/M02 A3034 RMK A01 T00451022  RH  062%=      5-min Rain = 0
KCL2 092306Z 33008KT 05/M02 A3034 RMK A01 T00451022  RH  062%=      5-min Rain = 0
KCL2 092307Z 33008KT 05/M02 A3034 RMK A01 T00451021  RH  062%=      5-min Rain = 0
KCL2 092308Z 33009KT 04/M02 A3034 RMK A01 T00441021  RH  062%=      5-min Rain = 0
KCL2 092309Z 34007KT 04/M02 A3034 RMK A01 T00441021  RH  063%=      5-min Rain = 0
KCL2 092310Z 33008KT 04/M02 A3034 RMK A01 T00431021  RH  063%=      5-min Rain = 0
KCL2 092311Z 33009KT 04/M02 A3034 RMK A01 T00421022  RH  063%=      5-min Rain = 0
KCL2 092312Z 33009KT 04/M02 A3034 RMK A01 T00421022  RH  063%=      5-min Rain = 0
KCL2 092313Z 33009KT 04/M02 A3034 RMK A01 T00421022  RH  063%=      5-min Rain = 0
KCL2 092314Z 33009KT 04/M02 A3034 RMK A01 T00411022  RH  063%=      5-min Rain = 0
KCL2 092315Z 33009KT 04/M02 A3034 RMK A01 T00411022  RH  063%=      5-min Rain = 0
KCL2 092316Z 33009KT 04/M02 A3034 RMK A01 T00411023  RH  063%=      5-min Rain = 0
KCL2 092317Z 33009KT 04/M02 A3034 RMK A01 T00401023  RH  063%=      5-min Rain = 0
KCL2 092318Z 33009KT 04/M02 A3034 RMK A01 T00401023  RH  064%=      5-min Rain = 0
KCL2 092319Z 33008KT 04/M02 A3034 RMK A01 T00391023  RH  064%=      5-min Rain = 0
KCL2 092320Z 33008KT 04/M02 A3034 RMK A01 T00381023  RH  064%=      5-min Rain = 0
KCL2 092321Z 33009KT 04/M02 A3034 RMK A01 T00371023  RH  064%=      5-min Rain = 0
KCL2 092322Z 33008KT 04/M02 A3034 RMK A01 T00371024  RH  065%=      5-min Rain = 0
KCL2 092323Z 33008KT 04/M02 A3034 RMK A01 T00361024  RH  065%=      5-min Rain = 0
KCL2 092324Z 34009KT 04/M02 A3034 RMK A01 T00351024  RH  065%=      5-min Rain = 0
KCL2 092325Z 34007KT 04/M02 A3034 RMK A01 T00351024  RH  065%=      5-min Rain = 0
KCL2 092326Z 33008KT 03/M03 A3034 RMK A01 T00341025  RH  065%=      5-min Rain = 0
KCL2 092327Z 34009KT 03/M03 A3034 RMK A01 T00341025  RH  065%=      5-min Rain = 0
KCL2 092328Z 33008KT 03/M03 A3034 RMK A01 T00341025  RH  065%=      5-min Rain = 0
KCL2 092329Z 34008KT 03/M03 A3034 RMK A01 T00331026  RH  065%=      5-min Rain = 0
KCL2 092330Z 33008KT 03/M03 A3034 RMK A01 T00321026  RH  065%=      5-min Rain = 0
KCL2 092331Z 33008KT 03/M03 A3034 RMK A01 T00321026  RH  066%=      5-min Rain = 0
KCL2 092332Z 33008KT 03/M03 A3034 RMK A01 T00311027  RH  066%=      5-min Rain = 0
KCL2 092333Z 33008KT 03/M03 A3034 RMK A01 T00311027  RH  066%=      5-min Rain = 0
KCL2 092334Z 33007KT 03/M03 A3034 RMK A01 T00301027  RH  066%=      5-min Rain = 0
KCL2 092335Z 33007KT 03/M03 A3034 RMK A01 T00301027  RH  066%=      5-min Rain = 0
KCL2 092336Z 33007KT 03/M03 A3034 RMK A01 T00291027  RH  067%=      5-min Rain = 0
KCL2 092337Z 33008KT 03/M03 A3034 RMK A01 T00281027  RH  067%=      5-min Rain = 0
KCL2 092338Z 33008KT 03/M03 A3034 RMK A01 T00271027  RH  067%=      5-min Rain = 0
KCL2 092339Z 33007KT 03/M03 A3034 RMK A01 T00261027  RH  068%=      5-min Rain = 0
KCL2 092340Z 32007KT 03/M03 A3034 RMK A01 T00261027  RH  068%=      5-min Rain = 0
KCL2 092341Z 32007KT 02/M03 A3034 RMK A01 T00241028  RH  069%=      5-min Rain = 0
KCL2 092342Z 32007KT 02/M03 A3034 RMK A01 T00231028  RH  069%=      5-min Rain = 0
KCL2 092343Z 32007KT 02/M03 A3034 RMK A01 T00231028  RH  069%=      5-min Rain = 0
KCL2 092344Z 32007KT 02/M03 A3034 RMK A01 T00221027  RH  070%=      5-min Rain = 0
KCL2 092345Z 32007KT 02/M03 A3034 RMK A01 T00221028  RH  070%=      5-min Rain = 0
KCL2 092346Z 32007KT 02/M03 A3034 RMK A01 T00211028  RH  070%=      5-min Rain = 0
KCL2 092347Z 32007KT 02/M03 A3034 RMK A01 T00201028  RH  071%=      5-min Rain = 0
KCL2 092348Z 32007KT 02/M03 A3034 RMK A01 T00191028  RH  071%=      5-min Rain = 0
KCL2 092349Z 32007KT 02/M03 A3035 RMK A01 T00181028  RH  071%=      5-min Rain = 0
KCL2 092350Z 33007KT 02/M03 A3035 RMK A01 T00181028  RH  072%=      5-min Rain = 0
KCL2 092351Z 33007KT 02/M03 A3035 RMK A01 T00171028  RH  072%=      5-min Rain = 0
KCL2 092352Z 32007KT 02/M03 A3035 RMK A01 T00171027  RH  072%=      5-min Rain = 0
KCL2 092353Z 32006KT 02/M03 A3035 RMK A01 T00171028  RH  072%=      5-min Rain = 0
KCL2 092354Z 32007KT 02/M03 A3035 RMK A01 T00161028  RH  072%=      5-min Rain = 0
KCL2 092355Z 33007KT 02/M03 A3035 RMK A01 T00161028  RH  073%=      5-min Rain = 0
KCL2 092356Z 33007KT 02/M03 A3035 RMK A01 T00151028  RH  073%=      5-min Rain = 0
KCL2 092357Z 32007KT 02/M03 A3035 RMK A01 T00151028  RH  073%=      5-min Rain = 0
KCL2 092358Z 32006KT 02/M03 A3035 RMK A01 T00151028  RH  073%=      5-min Rain = 0
KCL2 092359Z 32007KT 02/M03 A3035 RMK A01 T00151028  RH  073%=      5-min Rain = 0
KCL2 100000Z 32007KT 01/M03 A3035 RMK A01 T00141028  RH  073%=      5-min Rain = 0
KCL2 100001Z 32007KT 01/M03 A3035 RMK A01 T00141028  RH  074%=      5-min Rain = 0
KCL2 100002Z 32007KT 01/M03 A3035 RMK A01 T00141028  RH  074%=      5-min Rain = 0
KCL2 100003Z 32007KT 01/M03 A3035 RMK A01 T00131028  RH  074%=      5-min Rain = 0
KCL2 100004Z 32007KT 01/M03 A3035 RMK A01 T00131028  RH  074%=      5-min Rain = 0
KCL2 100005Z 32007KT 01/M03 A3035 RMK A01 T00121029  RH  074%=      5-min Rain = 0
KCL2 100006Z 32007KT 01/M03 A3035 RMK A01 T00121029  RH  074%=      5-min Rain = 0
KCL2 100007Z 32007KT 01/M03 A3035 RMK A01 T00111029  RH  075%=      5-min Rain = 0
KCL2 100008Z 32007KT 01/M03 A3035 RMK A01 T00111029  RH  075%=      5-min Rain = 0
KCL2 100009Z 32008KT 01/M03 A3035 RMK A01 T00101029  RH  075%=      5-min Rain = 0
KCL2 100010Z 32007KT 01/M03 A3035 RMK A01 T00101029  RH  075%=      5-min Rain = 0
KCL2 100011Z 32008KT 01/M03 A3035 RMK A01 T00101029  RH  075%=      5-min Rain = 0
KCL2 100012Z 32008KT 01/M03 A3035 RMK A01 T00101029  RH  075%=      5-min Rain = 0
KCL2 100013Z 32008KT 01/M03 A3035 RMK A01 T00101029  RH  075%=      5-min Rain = 0
KCL2 100014Z 32008KT 01/M03 A3035 RMK A01 T00101029  RH  075%=      5-min Rain = 0
KCL2 100015Z 32008KT 01/M03 A3035 RMK A01 T00101029  RH  075%=      5-min Rain = 0
KCL2 100016Z 32008KT 01/M03 A3035 RMK A01 T00101029  RH  075%=      5-min Rain = 0
KCL2 100017Z 32008KT 01/M03 A3036 RMK A01 T00111029  RH  075%=      5-min Rain = 0
KCL2 100018Z 32007KT 01/M03 A3035 RMK A01 T00111030  RH  074%=      5-min Rain = 0
KCL2 100019Z 32008KT 01/M03 A3035 RMK A01 T00111030  RH  074%=      5-min Rain = 0
KCL2 100020Z 32007KT 01/M03 A3035 RMK A01 T00111030  RH  074%=      5-min Rain = 0
KCL2 100021Z 32008KT 01/M03 A3035 RMK A01 T00111030  RH  074%=      5-min Rain = 0
KCL2 100022Z 33007KT 01/M03 A3036 RMK A01 T00101031  RH  074%=      5-min Rain = 0
KCL2 100023Z 32007KT 01/M03 A3036 RMK A01 T00101031  RH  074%=      5-min Rain = 0
KCL2 100024Z 32007KT 01/M03 A3036 RMK A01 T00091031  RH  075%=      5-min Rain = 0
KCL2 100025Z 32007KT 01/M03 A3036 RMK A01 T00081031  RH  075%=      5-min Rain = 0
KCL2 100026Z 33007KT 01/M03 A3036 RMK A01 T00081031  RH  075%=      5-min Rain = 0
KCL2 100027Z 33007KT 01/M03 A3036 RMK A01 T00071031  RH  075%=      5-min Rain = 0
KCL2 100028Z 32007KT 01/M03 A3036 RMK A01 T00071032  RH  075%=      5-min Rain = 0
KCL2 100029Z 33007KT 01/M03 A3036 RMK A01 T00061032  RH  076%=      5-min Rain = 0
KCL2 100030Z 33007KT 01/M03 A3036 RMK A01 T00061032  RH  076%=      5-min Rain = 0
KCL2 100031Z 33007KT 01/M03 A3036 RMK A01 T00061032  RH  076%=      5-min Rain = 0
KCL2 100032Z 33007KT 01/M03 A3036 RMK A01 T00061032  RH  076%=      5-min Rain = 0
KCL2 100033Z 33007KT 01/M03 A3036 RMK A01 T00061032  RH  076%=      5-min Rain = 0
KCL2 100034Z 33007KT 01/M03 A3036 RMK A01 T00061032  RH  076%=      5-min Rain = 0
KCL2 100035Z 33007KT 01/M03 A3036 RMK A01 T00061032  RH  076%=      5-min Rain = 0
KCL2 100036Z 33007KT 01/M03 A3036 RMK A01 T00061032  RH  076%=      5-min Rain = 0
KCL2 100037Z 33007KT 01/M03 A3036 RMK A01 T00061032  RH  076%=      5-min Rain = 0
KCL2 100038Z 33007KT 01/M03 A3036 RMK A01 T00061032  RH  076%=      5-min Rain = 0
KCL2 100039Z 34007KT 01/M03 A3036 RMK A01 T00061032  RH  076%=      5-min Rain = 0
KCL2 100040Z 33007KT 01/M03 A3036 RMK A01 T00061032  RH  076%=      5-min Rain = 0
KCL2 100041Z 33007KT 01/M03 A3036 RMK A01 T00061032  RH  076%=      5-min Rain = 0
KCL2 100042Z 33007KT 01/M03 A3036 RMK A01 T00051032  RH  076%=      5-min Rain = 0
KCL2 100043Z 33007KT 01/M03 A3036 RMK A01 T00051033  RH  076%=      5-min Rain = 0
KCL2 100044Z 33007KT 01/M03 A3036 RMK A01 T00051033  RH  076%=      5-min Rain = 0
KCL2 100045Z 33007KT 01/M03 A3036 RMK A01 T00051033  RH  076%=      5-min Rain = 0
KCL2 100046Z 33006KT 01/M03 A3036 RMK A01 T00051033  RH  076%=      5-min Rain = 0
KCL2 100047Z 33007KT 00/M03 A3036 RMK A01 T00041033  RH  076%=      5-min Rain = 0
KCL2 100048Z 33007KT 00/M03 A3036 RMK A01 T00041033  RH  076%=      5-min Rain = 0
KCL2 100049Z 33006KT 00/M03 A3036 RMK A01 T00041033  RH  076%=      5-min Rain = 0
KCL2 100050Z 33006KT 00/M03 A3036 RMK A01 T00041034  RH  076%=      5-min Rain = 0
KCL2 100051Z 33006KT 00/M03 A3036 RMK A01 T00041034  RH  076%=      5-min Rain = 0
KCL2 100052Z 33006KT 00/M03 A3036 RMK A01 T00041034  RH  076%=      5-min Rain = 0
KCL2 100053Z 34006KT 00/M03 A3036 RMK A01 T00041034  RH  076%=      5-min Rain = 0
KCL2 100054Z 33006KT 00/M03 A3036 RMK A01 T00041034  RH  076%=      5-min Rain = 0
KCL2 100055Z 34006KT 00/M03 A3036 RMK A01 T00031034  RH  076%=      5-min Rain = 0
KCL2 100056Z 34006KT 00/M03 A3036 RMK A01 T00031034  RH  076%=      5-min Rain = 0
KCL2 100057Z 33006KT 00/M03 A3036 RMK A01 T00031034  RH  076%=      5-min Rain = 0
KCL2 100058Z 34006KT 00/M03 A3036 RMK A01 T00031034  RH  076%=      5-min Rain = 0
KCL2 100059Z 34006KT 00/M03 A3036 RMK A01 T00031034  RH  076%=      5-min Rain = 0
KCL2 100100Z 34006KT 00/M03 A3036 RMK A01 T00031034  RH  076%=      5-min Rain = 0
KCL2 100101Z 34006KT 00/M03 A3036 RMK A01 T00021034  RH  076%=      5-min Rain = 0
KCL2 100102Z 34006KT 00/M03 A3036 RMK A01 T00021034  RH  076%=      5-min Rain = 0
KCL2 100103Z 34006KT 00/M04 A3036 RMK A01 T00021035  RH  076%=      5-min Rain = 0
KCL2 100104Z 34006KT 00/M03 A3036 RMK A01 T00021034  RH  077%=      5-min Rain = 0
KCL2 100105Z 34006KT 00/M04 A3036 RMK A01 T00021035  RH  077%=      5-min Rain = 0
KCL2 100106Z 34006KT 00/M03 A3036 RMK A01 T00011034  RH  077%=      5-min Rain = 0
KCL2 100107Z 34006KT 00/M03 A3036 RMK A01 T00011034  RH  077%=      5-min Rain = 0
KCL2 100108Z 34006KT 00/M03 A3036 RMK A01 T00011034  RH  077%=      5-min Rain = 0
KCL2 100109Z 34006KT 00/M03 A3036 RMK A01 T00011034  RH  077%=      5-min Rain = 0
KCL2 100110Z 34006KT 00/M03 A3036 RMK A01 T00011034  RH  077%=      5-min Rain = 0
KCL2 100111Z 34006KT 00/M03 A3036 RMK A01 T00011034  RH  077%=      5-min Rain = 0
KCL2 100112Z 34006KT 00/04 A3036 RMK A01 T00000-35  RH  077%=      5-min Rain = 0
KCL2 100113Z 34006KT 00/04 A3036 RMK A01 T00000-35  RH  077%=      5-min Rain = 0
KCL2 100114Z 34007KT 00/04 A3036 RMK A01 T00000-35  RH  077%=      5-min Rain = 0
KCL2 100115Z 34006KT 00/04 A3036 RMK A01 T00000-35  RH  077%=      5-min Rain = 0
KCL2 100116Z 34006KT 00/04 A3036 RMK A01 T00000-35  RH  077%=      5-min Rain = 0
KCL2 100117Z 34006KT 00/04 A3036 RMK A01 T00000-35  RH  077%=      5-min Rain = 0
KCL2 100118Z 33006KT 00/04 A3036 RMK A01 T00000-36  RH  077%=      5-min Rain = 0
KCL2 100119Z 33006KT 00/04 A3036 RMK A01 T00000-36  RH  077%=      5-min Rain = 0
KCL2 100120Z 33006KT 00/04 A3036 RMK A01 T00000-36  RH  077%=      5-min Rain = 0
KCL2 100121Z 33006KT M00/M04 A3036 RMK A01 T10011037  RH  077%=      5-min Rain = 0
KCL2 100122Z 33006KT M00/M04 A3036 RMK A01 T10011037  RH  077%=      5-min Rain = 0
KCL2 100123Z 33006KT M00/M04 A3036 RMK A01 T10021037  RH  077%=      5-min Rain = 0
KCL2 100124Z 32006KT M00/M04 A3036 RMK A01 T10031038  RH  077%=      5-min Rain = 0
KCL2 100125Z 32006KT M00/M04 A3037 RMK A01 T10031038  RH  077%=      5-min Rain = 0
KCL2 100126Z 32006KT M00/M04 A3036 RMK A01 T10031038  RH  077%=      5-min Rain = 0
KCL2 100127Z 32005KT M00/M04 A3036 RMK A01 T10041039  RH  077%=      5-min Rain = 0
KCL2 100128Z 32006KT M00/M04 A3036 RMK A01 T10041038  RH  077%=      5-min Rain = 0
KCL2 100129Z 32005KT M00/M04 A3036 RMK A01 T10041039  RH  077%=      5-min Rain = 0
KCL2 100130Z 31005KT M00/M04 A3036 RMK A01 T10041039  RH  077%=      5-min Rain = 0
KCL2 100131Z 31005KT M00/M04 A3036 RMK A01 T10041038  RH  078%=      5-min Rain = 0
KCL2 100132Z 31005KT M01/M04 A3036 RMK A01 T10051038  RH  078%=      5-min Rain = 0
KCL2 100133Z 31005KT M01/M04 A3036 RMK A01 T10051038  RH  078%=      5-min Rain = 0
KCL2 100134Z 31005KT M01/M04 A3036 RMK A01 T10051038  RH  078%=      5-min Rain = 0
KCL2 100135Z 30004KT M01/M04 A3036 RMK A01 T10061039  RH  078%=      5-min Rain = 0
KCL2 100136Z 30004KT M01/M04 A3036 RMK A01 T10061039  RH  079%=      5-min Rain = 0
KCL2 100137Z 30004KT M01/M04 A3036 RMK A01 T10061039  RH  079%=      5-min Rain = 0
KCL2 100138Z 30004KT M01/M04 A3036 RMK A01 T10071039  RH  079%=      5-min Rain = 0
KCL2 100139Z 31005KT M01/M04 A3036 RMK A01 T10081039  RH  080%=      5-min Rain = 0
KCL2 100140Z 30005KT M01/M04 A3036 RMK A01 T10091039  RH  080%=      5-min Rain = 0
KCL2 100141Z 31005KT M01/M04 A3036 RMK A01 T10091038  RH  081%=      5-min Rain = 0
KCL2 100142Z 31005KT M01/M04 A3036 RMK A01 T10091038  RH  081%=      5-min Rain = 0
KCL2 100143Z 31005KT M01/M04 A3036 RMK A01 T10091038  RH  081%=      5-min Rain = 0
KCL2 100144Z 31006KT M01/M04 A3036 RMK A01 T10091038  RH  081%=      5-min Rain = 0
KCL2 100145Z 31005KT M01/M04 A3036 RMK A01 T10101038  RH  081%=      5-min Rain = 0
KCL2 100146Z 31006KT M01/M04 A3036 RMK A01 T10101038  RH  081%=      5-min Rain = 0
KCL2 100147Z 31006KT M01/M04 A3036 RMK A01 T10101039  RH  081%=      5-min Rain = 0
KCL2 100148Z 31006KT M01/M04 A3036 RMK A01 T10111039  RH  081%=      5-min Rain = 0
KCL2 100149Z 31006KT M01/M04 A3036 RMK A01 T10101039  RH  081%=      5-min Rain = 0
KCL2 100150Z 31006KT M01/M04 A3036 RMK A01 T10101039  RH  081%=      5-min Rain = 0
KCL2 100151Z 31006KT M01/M04 A3036 RMK A01 T10101039  RH  081%=      5-min Rain = 0
KCL2 100152Z 31006KT M01/M04 A3037 RMK A01 T10101039  RH  081%=      5-min Rain = 0
KCL2 100153Z 31006KT M01/M04 A3037 RMK A01 T10101039  RH  081%=      5-min Rain = 0
KCL2 100154Z 31005KT M01/M04 A3037 RMK A01 T10101039  RH  081%=      5-min Rain = 0
KCL2 100155Z 31006KT M01/M04 A3037 RMK A01 T10101039  RH  081%=      5-min Rain = 0
KCL2 100156Z 31006KT M01/M04 A3037 RMK A01 T10101039  RH  081%=      5-min Rain = 0
KCL2 100157Z 31005KT M01/M04 A3037 RMK A01 T10101038  RH  081%=      5-min Rain = 0
KCL2 100158Z 32005KT M01/M04 A3037 RMK A01 T10091038  RH  081%=      5-min Rain = 0
KCL2 100159Z 32005KT M01/M04 A3037 RMK A01 T10091038  RH  081%=      5-min Rain = 0
KCL2 100200Z 31005KT M01/M04 A3037 RMK A01 T10091038  RH  081%=      5-min Rain = 0
KCL2 100201Z 31005KT M01/M04 A3037 RMK A01 T10091038  RH  081%=      5-min Rain = 0
KCL2 100202Z 31005KT M01/M04 A3037 RMK A01 T10091038  RH  081%=      5-min Rain = 0
KCL2 100203Z 31004KT M01/M04 A3037 RMK A01 T10091038  RH  081%=      5-min Rain = 0
KCL2 100204Z 31004KT M01/M04 A3037 RMK A01 T10091038  RH  080%=      5-min Rain = 0
KCL2 100205Z 30004KT M01/M04 A3037 RMK A01 T10091038  RH  080%=      5-min Rain = 0
KCL2 100206Z 30004KT M01/M04 A3037 RMK A01 T10091038  RH  080%=      5-min Rain = 0
KCL2 100207Z 30004KT M01/M04 A3037 RMK A01 T10091038  RH  081%=      5-min Rain = 0
KCL2 100208Z 30004KT M01/M04 A3037 RMK A01 T10091038  RH  081%=      5-min Rain = 0
KCL2 100209Z 30004KT M01/M04 A3037 RMK A01 T10091038  RH  081%=      5-min Rain = 0
KCL2 100210Z 29004KT M01/M04 A3037 RMK A01 T10091037  RH  081%=      5-min Rain = 0
KCL2 100211Z 29004KT M01/M04 A3037 RMK A01 T10091037  RH  081%=      5-min Rain = 0
KCL2 100212Z 29004KT M01/M04 A3037 RMK A01 T10091038  RH  081%=      5-min Rain = 0
KCL2 100213Z 28004KT M01/M04 A3037 RMK A01 T10091038  RH  080%=      5-min Rain = 0
KCL2 100214Z 28004KT M01/M04 A3037 RMK A01 T10091038  RH  080%=      5-min Rain = 0
KCL2 100215Z 28004KT M01/M04 A3037 RMK A01 T10091038  RH  080%=      5-min Rain = 0
KCL2 100216Z 28004KT M01/M04 A3037 RMK A01 T10091039  RH  080%=      5-min Rain = 0
KCL2 100217Z 28003KT M01/M04 A3037 RMK A01 T10091038  RH  081%=      5-min Rain = 0
KCL2 100218Z 28004KT M01/M04 A3037 RMK A01 T10091038  RH  081%=      5-min Rain = 0
KCL2 100219Z 29004KT M01/M04 A3037 RMK A01 T10091038  RH  081%=      5-min Rain = 0
KCL2 100220Z 29004KT M01/M04 A3037 RMK A01 T10081038  RH  081%=      5-min Rain = 0
KCL2 100221Z 29004KT M01/M04 A3037 RMK A01 T10081038  RH  080%=      5-min Rain = 0
KCL2 100222Z 30004KT M01/M04 A3037 RMK A01 T10071038  RH  080%=      5-min Rain = 0
KCL2 100223Z 30004KT M01/M04 A3037 RMK A01 T10071038  RH  080%=      5-min Rain = 0
KCL2 100224Z 30005KT M01/M04 A3037 RMK A01 T10071038  RH  080%=      5-min Rain = 0
KCL2 100225Z 30005KT M01/M04 A3037 RMK A01 T10071038  RH  080%=      5-min Rain = 0
KCL2 100226Z 30004KT M01/M04 A3037 RMK A01 T10071038  RH  079%=      5-min Rain = 0
KCL2 100227Z 30004KT M01/M04 A3037 RMK A01 T10071038  RH  079%=      5-min Rain = 0
KCL2 100228Z 30004KT M01/M04 A3037 RMK A01 T10071038  RH  080%=      5-min Rain = 0
KCL2 100229Z 30005KT M01/M04 A3037 RMK A01 T10081038  RH  080%=      5-min Rain = 0
KCL2 100230Z 30005KT M01/M04 A3037 RMK A01 T10071038  RH  080%=      5-min Rain = 0
KCL2 100231Z 30005KT M01/M04 A3037 RMK A01 T10081038  RH  080%=      5-min Rain = 0
KCL2 100232Z 30005KT M01/M04 A3037 RMK A01 T10081039  RH  080%=      5-min Rain = 0
KCL2 100233Z 30005KT M01/M04 A3037 RMK A01 T10091039  RH  080%=      5-min Rain = 0
KCL2 100234Z 30005KT M01/M04 A3037 RMK A01 T10101039  RH  080%=      5-min Rain = 0
KCL2 100235Z 30005KT M01/M04 A3037 RMK A01 T10101039  RH  081%=      5-min Rain = 0
KCL2 100236Z 30005KT M01/M04 A3037 RMK A01 T10111039  RH  081%=      5-min Rain = 0
KCL2 100237Z 29005KT M01/M04 A3037 RMK A01 T10121039  RH  082%=      5-min Rain = 0
KCL2 100238Z 29004KT M01/M04 A3037 RMK A01 T10121038  RH  083%=      5-min Rain = 0
KCL2 100239Z 29004KT M01/M04 A3037 RMK A01 T10131038  RH  083%=      5-min Rain = 0
KCL2 100240Z 29004KT M01/M04 A3037 RMK A01 T10121037  RH  084%=      5-min Rain = 0
KCL2 100241Z 29005KT M01/M04 A3037 RMK A01 T10131037  RH  084%=      5-min Rain = 0
KCL2 100242Z 29005KT M01/M04 A3037 RMK A01 T10141037  RH  084%=      5-min Rain = 0
KCL2 100243Z 29005KT M02/M04 A3037 RMK A01 T10151037  RH  085%=      5-min Rain = 0
KCL2 100244Z 29005KT M02/M04 A3037 RMK A01 T10151037  RH  085%=      5-min Rain = 0
KCL2 100245Z 29005KT M02/M04 A3037 RMK A01 T10151037  RH  085%=      5-min Rain = 0
KCL2 100246Z 29005KT M01/M04 A3037 RMK A01 T10141036  RH  085%=      5-min Rain = 0
KCL2 100247Z 29005KT M01/M04 A3037 RMK A01 T10131036  RH  085%=      5-min Rain = 0
KCL2 100248Z 29005KT M01/M04 A3037 RMK A01 T10131036  RH  084%=      5-min Rain = 0
KCL2 100249Z 29005KT M01/M04 A3037 RMK A01 T10131036  RH  084%=      5-min Rain = 0
KCL2 100250Z 29005KT M01/M04 A3037 RMK A01 T10121036  RH  084%=      5-min Rain = 0
KCL2 100251Z 29005KT M01/M04 A3037 RMK A01 T10121035  RH  084%=      5-min Rain = 0
KCL2 100252Z 29005KT M01/M03 A3037 RMK A01 T10111034  RH  084%=      5-min Rain = 0
KCL2 100253Z 30005KT M01/M04 A3037 RMK A01 T10111035  RH  084%=      5-min Rain = 0
KCL2 100254Z 30005KT M01/M04 A3038 RMK A01 T10101035  RH  083%=      5-min Rain = 0
KCL2 100255Z 30005KT M01/M04 A3038 RMK A01 T10101036  RH  083%=      5-min Rain = 0
KCL2 100256Z 30005KT M01/M04 A3038 RMK A01 T10091036  RH  082%=      5-min Rain = 0
KCL2 100257Z 30005KT M01/M04 A3038 RMK A01 T10091036  RH  082%=      5-min Rain = 0
KCL2 100258Z 31005KT M01/M04 A3038 RMK A01 T10091036  RH  082%=      5-min Rain = 0
KCL2 100259Z 31006KT M01/M04 A3038 RMK A01 T10101037  RH  082%=      5-min Rain = 0
KCL2 100300Z 31006KT M01/M04 A3038 RMK A01 T10111038  RH  082%=      5-min Rain = 0
KCL2 100301Z 31006KT M01/M04 A3038 RMK A01 T10121039  RH  082%=      5-min Rain = 0
KCL2 100302Z 31005KT M01/M04 A3038 RMK A01 T10131040  RH  081%=      5-min Rain = 0
KCL2 100303Z 31005KT M01/M04 A3038 RMK A01 T10131041  RH  082%=      5-min Rain = 0
KCL2 100304Z 31006KT M01/M04 A3038 RMK A01 T10131040  RH  082%=      5-min Rain = 0
KCL2 100305Z 32006KT M01/M04 A3038 RMK A01 T10131040  RH  082%=      5-min Rain = 0
KCL2 100306Z 32006KT M01/M04 A3038 RMK A01 T10131040  RH  082%=      5-min Rain = 0
KCL2 100307Z 32006KT M01/M04 A3038 RMK A01 T10121039  RH  082%=      5-min Rain = 0
KCL2 100308Z 32006KT M01/M04 A3038 RMK A01 T10131040  RH  082%=      5-min Rain = 0
KCL2 100309Z 32006KT M01/M04 A3038 RMK A01 T10121039  RH  082%=      5-min Rain = 0
KCL2 100310Z 32006KT M01/M04 A3038 RMK A01 T10121040  RH  082%=      5-min Rain = 0
KCL2 100311Z 32006KT M01/M04 A3038 RMK A01 T10121040  RH  082%=      5-min Rain = 0
KCL2 100312Z 31006KT M01/M04 A3038 RMK A01 T10121040  RH  081%=      5-min Rain = 0
KCL2 100313Z 31006KT M01/M04 A3038 RMK A01 T10121040  RH  081%=      5-min Rain = 0
KCL2 100314Z 31006KT M01/M04 A3038 RMK A01 T10111040  RH  081%=      5-min Rain = 0
KCL2 100315Z 31006KT M01/M04 A3038 RMK A01 T10111040  RH  081%=      5-min Rain = 0
KCL2 100316Z 31006KT M01/M04 A3038 RMK A01 T10111040  RH  081%=      5-min Rain = 0
KCL2 100317Z 30006KT M01/M04 A3038 RMK A01 T10111040  RH  081%=      5-min Rain = 0
KCL2 100318Z 30006KT M01/M04 A3038 RMK A01 T10111040  RH  081%=      5-min Rain = 0
KCL2 100319Z 30006KT M01/M04 A3038 RMK A01 T10111039  RH  081%=      5-min Rain = 0
KCL2 100320Z 30006KT M01/M04 A3038 RMK A01 T10121039  RH  082%=      5-min Rain = 0
KCL2 100321Z 30007KT M01/M04 A3038 RMK A01 T10121039  RH  082%=      5-min Rain = 0
KCL2 100322Z 31007KT M01/M04 A3038 RMK A01 T10131040  RH  082%=      5-min Rain = 0
KCL2 100323Z 31007KT M01/M04 A3039 RMK A01 T10141040  RH  082%=      5-min Rain = 0
KCL2 100324Z 31007KT M01/M04 A3038 RMK A01 T10141040  RH  082%=      5-min Rain = 0
KCL2 100325Z 31007KT M01/M04 A3038 RMK A01 T10141040  RH  082%=      5-min Rain = 0
KCL2 100326Z 31007KT M01/M04 A3038 RMK A01 T10141040  RH  082%=      5-min Rain = 0
KCL2 100327Z 31007KT M01/M04 A3038 RMK A01 T10141040  RH  082%=      5-min Rain = 0
KCL2 100328Z 31007KT M01/M04 A3038 RMK A01 T10141040  RH  082%=      5-min Rain = 0
KCL2 100329Z 31007KT M01/M04 A3039 RMK A01 T10131040  RH  082%=      5-min Rain = 0
KCL2 100330Z 31007KT M01/M04 A3039 RMK A01 T10131040  RH  082%=      5-min Rain = 0
KCL2 100331Z 31007KT M01/M04 A3039 RMK A01 T10141040  RH  082%=      5-min Rain = 0
KCL2 100332Z 31007KT M01/M04 A3039 RMK A01 T10141040  RH  082%=      5-min Rain = 0
KCL2 100333Z 31007KT M01/M04 A3039 RMK A01 T10141040  RH  083%=      5-min Rain = 0
KCL2 100334Z 31006KT M01/M04 A3039 RMK A01 T10141040  RH  083%=      5-min Rain = 0
KCL2 100335Z 31006KT M01/M04 A3039 RMK A01 T10141040  RH  083%=      5-min Rain = 0
KCL2 100336Z 31006KT M01/M04 A3039 RMK A01 T10141040  RH  082%=      5-min Rain = 0
KCL2 100337Z 31006KT M01/M04 A3039 RMK A01 T10141040  RH  082%=      5-min Rain = 0
KCL2 100338Z 31006KT M01/M04 A3039 RMK A01 T10141040  RH  082%=      5-min Rain = 0
KCL2 100339Z 31006KT M01/M04 A3038 RMK A01 T10141040  RH  082%=      5-min Rain = 0
KCL2 100340Z 31006KT M01/M04 A3038 RMK A01 T10141041  RH  082%=      5-min Rain = 0
KCL2 100341Z 31006KT M02/M04 A3038 RMK A01 T10151041  RH  082%=      5-min Rain = 0
KCL2 100342Z 31006KT M01/M04 A3038 RMK A01 T10141041  RH  082%=      5-min Rain = 0
KCL2 100343Z 32006KT M02/M04 A3038 RMK A01 T10151041  RH  082%=      5-min Rain = 0
KCL2 100344Z 32006KT M02/M04 A3038 RMK A01 T10151041  RH  083%=      5-min Rain = 0
KCL2 100345Z 32006KT M02/M04 A3039 RMK A01 T10161041  RH  083%=      5-min Rain = 0
KCL2 100346Z 32006KT M02/M04 A3038 RMK A01 T10151041  RH  083%=      5-min Rain = 0
KCL2 100347Z 32006KT M02/M04 A3038 RMK A01 T10151041  RH  082%=      5-min Rain = 0
KCL2 100348Z 33006KT M01/M04 A3038 RMK A01 T10141041  RH  082%=      5-min Rain = 0
KCL2 100349Z 33007KT M01/M04 A3038 RMK A01 T10141041  RH  082%=      5-min Rain = 0
KCL2 100350Z 33007KT M01/M04 A3038 RMK A01 T10141041  RH  082%=      5-min Rain = 0
KCL2 100351Z 33008KT M01/M04 A3039 RMK A01 T10131041  RH  082%=      5-min Rain = 0
KCL2 100352Z 33008KT M01/M04 A3039 RMK A01 T10141041  RH  082%=      5-min Rain = 0
KCL2 100353Z 33007KT M01/M04 A3039 RMK A01 T10141041  RH  082%=      5-min Rain = 0
KCL2 100354Z 33007KT M01/M04 A3039 RMK A01 T10141041  RH  082%=      5-min Rain = 0
KCL2 100355Z 33007KT M02/M04 A3039 RMK A01 T10151041  RH  082%=      5-min Rain = 0
KCL2 100356Z 33007KT M02/M04 A3039 RMK A01 T10151041  RH  083%=      5-min Rain = 0
KCL2 100357Z 33007KT M01/M04 A3039 RMK A01 T10141040  RH  083%=      5-min Rain = 0
KCL2 100358Z 33007KT M02/M04 A3039 RMK A01 T10151040  RH  083%=      5-min Rain = 0
KCL2 100359Z 33007KT M01/M04 A3039 RMK A01 T10141040  RH  083%=      5-min Rain = 0
KCL2 100400Z 33006KT M01/M04 A3038 RMK A01 T10141040  RH  082%=      5-min Rain = 0
KCL2 100401Z 32006KT M01/M04 A3038 RMK A01 T10141040  RH  082%=      5-min Rain = 0
KCL2 100402Z 32006KT M01/M04 A3038 RMK A01 T10141040  RH  082%=      5-min Rain = 0
KCL2 100403Z 32006KT M01/M04 A3038 RMK A01 T10141040  RH  082%=      5-min Rain = 0
KCL2 100404Z 32006KT M01/M04 A3038 RMK A01 T10141040  RH  082%=      5-min Rain = 0
KCL2 100405Z 32006KT M01/M04 A3038 RMK A01 T10141041  RH  082%=      5-min Rain = 0
KCL2 100406Z 32006KT M02/M04 A3039 RMK A01 T10151040  RH  083%=      5-min Rain = 0
KCL2 100407Z 32006KT M01/M04 A3039 RMK A01 T10141040  RH  083%=      5-min Rain = 0
KCL2 100408Z 32005KT M02/M04 A3039 RMK A01 T10151040  RH  083%=      5-min Rain = 0
KCL2 100409Z 32005KT M02/M04 A3039 RMK A01 T10151041  RH  082%=      5-min Rain = 0
KCL2 100410Z 32005KT M02/M04 A3038 RMK A01 T10151041  RH  082%=      5-min Rain = 0
KCL2 100411Z 32005KT M01/M04 A3038 RMK A01 T10141041  RH  082%=      5-min Rain = 0
KCL2 100412Z 31005KT M01/M04 A3038 RMK A01 T10141041  RH  082%=      5-min Rain = 0
KCL2 100413Z 31005KT M01/M04 A3038 RMK A01 T10131040  RH  082%=      5-min Rain = 0
KCL2 100414Z 31005KT M01/M04 A3038 RMK A01 T10121040  RH  081%=      5-min Rain = 0
KCL2 100415Z 32005KT M01/M04 A3038 RMK A01 T10121041  RH  081%=      5-min Rain = 0
KCL2 100416Z 32005KT M01/M04 A3038 RMK A01 T10131041  RH  081%=      5-min Rain = 0
KCL2 100417Z 32005KT M01/M04 A3038 RMK A01 T10131041  RH  081%=      5-min Rain = 0
KCL2 100418Z 32005KT M01/M04 A3038 RMK A01 T10131041  RH  081%=      5-min Rain = 0
KCL2 100419Z 32005KT M01/M04 A3038 RMK A01 T10131041  RH  081%=      5-min Rain = 0
KCL2 100420Z 32005KT M01/M04 A3038 RMK A01 T10131041  RH  081%=      5-min Rain = 0
KCL2 100421Z 32005KT M01/M04 A3038 RMK A01 T10121041  RH  081%=      5-min Rain = 0
KCL2 100422Z 32005KT M01/M04 A3038 RMK A01 T10111041  RH  080%=      5-min Rain = 0
KCL2 100423Z 32005KT M01/M04 A3038 RMK A01 T10111041  RH  080%=      5-min Rain = 0
KCL2 100424Z 32005KT M01/M04 A3038 RMK A01 T10111041  RH  080%=      5-min Rain = 0
KCL2 100425Z 32006KT M01/M04 A3038 RMK A01 T10111042  RH  079%=      5-min Rain = 0
KCL2 100426Z 32006KT M01/M04 A3038 RMK A01 T10111042  RH  079%=      5-min Rain = 0
KCL2 100427Z 33005KT M01/M04 A3038 RMK A01 T10111042  RH  079%=      5-min Rain = 0
KCL2 100428Z 33006KT M01/M04 A3038 RMK A01 T10101042  RH  079%=      5-min Rain = 0
KCL2 100429Z 33006KT M01/M04 A3038 RMK A01 T10101042  RH  079%=      5-min Rain = 0
KCL2 100430Z 33006KT M01/M04 A3038 RMK A01 T10101042  RH  078%=      5-min Rain = 0
KCL2 100431Z 32006KT M01/M04 A3038 RMK A01 T10101043  RH  078%=      5-min Rain = 0
KCL2 100432Z 32006KT M01/M04 A3038 RMK A01 T10101043  RH  078%=      5-min Rain = 0
KCL2 100433Z 32006KT M01/M04 A3038 RMK A01 T10101043  RH  078%=      5-min Rain = 0
KCL2 100434Z 32006KT M01/M04 A3038 RMK A01 T10101044  RH  078%=      5-min Rain = 0
KCL2 100435Z 32006KT M01/M04 A3038 RMK A01 T10111044  RH  078%=      5-min Rain = 0
KCL2 100436Z 32006KT M01/M04 A3038 RMK A01 T10111044  RH  078%=      5-min Rain = 0
KCL2 100437Z 32006KT M01/M04 A3038 RMK A01 T10121044  RH  078%=      5-min Rain = 0
KCL2 100438Z 33006KT M01/M05 A3038 RMK A01 T10111045  RH  078%=      5-min Rain = 0
KCL2 100439Z 33006KT M01/M05 A3038 RMK A01 T10111045  RH  078%=      5-min Rain = 0
KCL2 100440Z 32006KT M01/M05 A3038 RMK A01 T10111046  RH  078%=      5-min Rain = 0
KCL2 100441Z 32006KT M01/M05 A3038 RMK A01 T10111045  RH  077%=      5-min Rain = 0
KCL2 100442Z 32006KT M01/M05 A3038 RMK A01 T10101046  RH  077%=      5-min Rain = 0
KCL2 100443Z 33006KT M01/M05 A3038 RMK A01 T10091045  RH  076%=      5-min Rain = 0
KCL2 100444Z 32006KT M01/M05 A3038 RMK A01 T10081046  RH  076%=      5-min Rain = 0
KCL2 100445Z 32006KT M01/M05 A3038 RMK A01 T10071045  RH  075%=      5-min Rain = 0
KCL2 100446Z 32007KT M01/M05 A3038 RMK A01 T10071046  RH  075%=      5-min Rain = 0
KCL2 100447Z 32006KT M01/M05 A3038 RMK A01 T10081046  RH  075%=      5-min Rain = 0
KCL2 100448Z 32006KT M01/M05 A3038 RMK A01 T10081047  RH  075%=      5-min Rain = 0
KCL2 100449Z 32006KT M01/M05 A3038 RMK A01 T10091047  RH  075%=      5-min Rain = 0
KCL2 100450Z 32006KT M01/M05 A3038 RMK A01 T10091046  RH  076%=      5-min Rain = 0
KCL2 100451Z 32006KT M01/M05 A3038 RMK A01 T10081046  RH  075%=      5-min Rain = 0
KCL2 100452Z 32006KT M01/M05 A3038 RMK A01 T10081047  RH  075%=      5-min Rain = 0
KCL2 100453Z 31006KT M01/M05 A3038 RMK A01 T10081046  RH  075%=      5-min Rain = 0
KCL2 100454Z 31005KT M01/M05 A3038 RMK A01 T10071046  RH  075%=      5-min Rain = 0
KCL2 100455Z 31005KT M01/M05 A3037 RMK A01 T10071046  RH  075%=      5-min Rain = 0
KCL2 100456Z 31004KT M01/M05 A3037 RMK A01 T10071047  RH  074%=      5-min Rain = 0
KCL2 100457Z 31004KT M01/M05 A3037 RMK A01 T10091049  RH  074%=      5-min Rain = 0
KCL2 100458Z 31004KT M01/M05 A3038 RMK A01 T10111049  RH  075%=      5-min Rain = 0
KCL2 100459Z 31004KT M01/M05 A3038 RMK A01 T10111048  RH  076%=      5-min Rain = 0
KCL2 100500Z 31005KT M01/M05 A3038 RMK A01 T10121047  RH  077%=      5-min Rain = 0
KCL2 100501Z 31005KT M01/M05 A3038 RMK A01 T10121047  RH  077%=      5-min Rain = 0
KCL2 100502Z 30005KT M01/M05 A3037 RMK A01 T10121046  RH  077%=      5-min Rain = 0
KCL2 100503Z 30005KT M01/M05 A3037 RMK A01 T10111046  RH  077%=      5-min Rain = 0
KCL2 100504Z 30005KT M01/M05 A3037 RMK A01 T10111045  RH  077%=      5-min Rain = 0
KCL2 100505Z 30005KT M01/M05 A3037 RMK A01 T10111045  RH  078%=      5-min Rain = 0
KCL2 100506Z 30005KT M01/M04 A3037 RMK A01 T10111044  RH  078%=      5-min Rain = 0
KCL2 100507Z 30005KT M01/M04 A3037 RMK A01 T10111044  RH  078%=      5-min Rain = 0
KCL2 100508Z 29005KT M01/M04 A3037 RMK A01 T10111043  RH  079%=      5-min Rain = 0
KCL2 100509Z 29005KT M01/M04 A3037 RMK A01 T10111043  RH  079%=      5-min Rain = 0
KCL2 100510Z 29005KT M01/M04 A3037 RMK A01 T10121043  RH  079%=      5-min Rain = 0
KCL2 100511Z 29005KT M01/M04 A3037 RMK A01 T10121043  RH  079%=      5-min Rain = 0
KCL2 100512Z 29005KT M01/M04 A3037 RMK A01 T10121043  RH  079%=      5-min Rain = 0
KCL2 100513Z 29005KT M01/M04 A3037 RMK A01 T10111043  RH  079%=      5-min Rain = 0
KCL2 100514Z 30005KT M01/M04 A3037 RMK A01 T10111044  RH  079%=      5-min Rain = 0
KCL2 100515Z 30006KT M01/M04 A3037 RMK A01 T10111044  RH  078%=      5-min Rain = 0
KCL2 100516Z 30006KT M01/M04 A3038 RMK A01 T10111044  RH  078%=      5-min Rain = 0
KCL2 100517Z 30006KT M01/M04 A3038 RMK A01 T10111044  RH  078%=      5-min Rain = 0
KCL2 100518Z 30006KT M01/M05 A3038 RMK A01 T10121045  RH  078%=      5-min Rain = 0
KCL2 100519Z 30006KT M01/M05 A3038 RMK A01 T10131045  RH  079%=      5-min Rain = 0
KCL2 100520Z 30006KT M01/M05 A3038 RMK A01 T10141046  RH  079%=      5-min Rain = 0
KCL2 100521Z 30006KT M02/M05 A3038 RMK A01 T10151047  RH  079%=      5-min Rain = 0
KCL2 100522Z 29006KT M02/M05 A3038 RMK A01 T10171048  RH  079%=      5-min Rain = 0
KCL2 100523Z 29006KT M02/M05 A3038 RMK A01 T10171048  RH  080%=      5-min Rain = 0
KCL2 100524Z 29005KT M02/M05 A3037 RMK A01 T10171047  RH  080%=      5-min Rain = 0
KCL2 100525Z 28005KT M02/M05 A3037 RMK A01 T10171047  RH  080%=      5-min Rain = 0
KCL2 100526Z 28005KT M02/M05 A3037 RMK A01 T10171047  RH  080%=      5-min Rain = 0
KCL2 100527Z 28005KT M02/M05 A3037 RMK A01 T10171047  RH  080%=      5-min Rain = 0
KCL2 100528Z 27005KT M02/M05 A3037 RMK A01 T10181046  RH  081%=      5-min Rain = 0
KCL2 100529Z 27005KT M02/M05 A3037 RMK A01 T10171046  RH  081%=      5-min Rain = 0
KCL2 100530Z 27005KT M02/M05 A3037 RMK A01 T10171046  RH  080%=      5-min Rain = 0
KCL2 100531Z 27005KT M02/M05 A3037 RMK A01 T10171047  RH  080%=      5-min Rain = 0
KCL2 100532Z 27005KT M02/M05 A3037 RMK A01 T10171046  RH  081%=      5-min Rain = 0
KCL2 100533Z 27005KT M02/M05 A3037 RMK A01 T10171046  RH  081%=      5-min Rain = 0
KCL2 100534Z 27005KT M02/M05 A3037 RMK A01 T10161045  RH  081%=      5-min Rain = 0
KCL2 100535Z 27005KT M01/M04 A3037 RMK A01 T10141044  RH  080%=      5-min Rain = 0
KCL2 100536Z 27005KT M01/M05 A3037 RMK A01 T10141045  RH  079%=      5-min Rain = 0
KCL2 100537Z 27005KT M01/M05 A3037 RMK A01 T10141046  RH  079%=      5-min Rain = 0
KCL2 100538Z 27004KT M01/M05 A3037 RMK A01 T10141046  RH  079%=      5-min Rain = 0
KCL2 100539Z 28004KT M02/M05 A3037 RMK A01 T10161047  RH  079%=      5-min Rain = 0
KCL2 100540Z 27004KT M02/M05 A3037 RMK A01 T10171047  RH  080%=      5-min Rain = 0
KCL2 100541Z 27005KT M02/M05 A3037 RMK A01 T10171047  RH  080%=      5-min Rain = 0
KCL2 100542Z 27005KT M02/M05 A3037 RMK A01 T10181047  RH  081%=      5-min Rain = 0
KCL2 100543Z 28005KT M02/M05 A3037 RMK A01 T10191047  RH  081%=      5-min Rain = 0
KCL2 100544Z 28005KT M02/M05 A3037 RMK A01 T10201047  RH  082%=      5-min Rain = 0
KCL2 100545Z 28005KT M02/M05 A3038 RMK A01 T10201047  RH  082%=      5-min Rain = 0
KCL2 100546Z 28006KT M02/M05 A3038 RMK A01 T10211047  RH  082%=      5-min Rain = 0
KCL2 100547Z 28005KT M02/M05 A3038 RMK A01 T10211047  RH  082%=      5-min Rain = 0
KCL2 100548Z 28005KT M02/M05 A3038 RMK A01 T10221047  RH  083%=      5-min Rain = 0
KCL2 100549Z 28005KT M02/M05 A3038 RMK A01 T10231048  RH  083%=      5-min Rain = 0
KCL2 100550Z 28005KT M02/M05 A3038 RMK A01 T10231048  RH  083%=      5-min Rain = 0
KCL2 100551Z 27005KT M02/M05 A3038 RMK A01 T10231047  RH  084%=      5-min Rain = 0
KCL2 100552Z 27005KT M02/M05 A3038 RMK A01 T10231047  RH  084%=      5-min Rain = 0
KCL2 100553Z 27005KT M02/M05 A3038 RMK A01 T10231047  RH  084%=      5-min Rain = 0
KCL2 100554Z 27005KT M02/M05 A3038 RMK A01 T10231046  RH  084%=      5-min Rain = 0
KCL2 100555Z 27005KT M02/M05 A3038 RMK A01 T10231046  RH  084%=      5-min Rain = 0
KCL2 100556Z 27005KT M02/M05 A3038 RMK A01 T10231046  RH  084%=      5-min Rain = 0
KCL2 100557Z 27005KT M02/M05 A3038 RMK A01 T10231046  RH  084%=      5-min Rain = 0
KCL2 100558Z 27004KT M02/M05 A3038 RMK A01 T10241047  RH  084%=      5-min Rain = 0
KCL2 100559Z 27005KT M02/M05 A3038 RMK A01 T10241047  RH  084%=      5-min Rain = 0

Page generated in 0.1221 seconds.